Wetterdaten: Sonntag, 15.03.2020
Datum Zeit Temp. Aussen Temp. o. S. Temp +5cm Feuchte Auss Luftdruck Regen Sonnenschein Regendauer Solar Windben Empfang
15.03.2020 00:00 7,5 C 6,7 C 5,6 C 82 % 1018,8 hPa 0,0 l/m 0 min 0 min 0 W/m 0,0 km/h (0 Bft) 95,65 %
15.03.2020 00:02 7,4 C 6,7 C 6,1 C 82 % 1018,8 hPa 0,0 l/m 0 min 0 min 0 W/m 0,0 km/h (0 Bft) 97,78 %
15.03.2020 00:04 7,4 C 6,7 C 5,6 C 83 % 1018,8 hPa 0,0 l/m 0 min 0 min 0 W/m 0,0 km/h (0 Bft) 97,87 %
15.03.2020 00:08 7,4 C 6,7 C 5,6 C 83 % 1018,7 hPa 0,0 l/m 0 min 0 min 0 W/m 0,0 km/h (0 Bft) 98,94 %
15.03.2020 00:10 7,4 C 6,7 C 5,6 C 83 % 1018,7 hPa 0,0 l/m 0 min 0 min 0 W/m 0,0 km/h (0 Bft) 100,00 %
15.03.2020 00:12 7,4 C 6,7 C 5,6 C 83 % 1018,7 hPa 0,0 l/m 0 min 0 min 0 W/m 0,0 km/h (0 Bft) 100,00 %
15.03.2020 00:14 7,3 C 6,7 C 6,1 C 83 % 1018,7 hPa 0,0 l/m 0 min 0 min 0 W/m 0,0 km/h (0 Bft) 100,00 %
15.03.2020 00:16 7,3 C 6,7 C 6,1 C 83 % 1018,6 hPa 0,0 l/m 0 min 0 min 0 W/m 0,0 km/h (0 Bft) 95,74 %
15.03.2020 00:18 7,3 C 6,7 C 6,1 C 83 % 1018,6 hPa 0,0 l/m 0 min 0 min 0 W/m 19,3 km/h (3 Bft) 95,74 %
15.03.2020 00:20 7,3 C 6,7 C 6,1 C 83 % 1018,7 hPa 0,0 l/m 0 min 0 min 0 W/m 16,1 km/h (3 Bft) 97,87 %
15.03.2020 00:22 7,3 C 6,7 C 6,1 C 83 % 1018,7 hPa 0,0 l/m 0 min 0 min 0 W/m 22,5 km/h (4 Bft) 93,62 %
15.03.2020 00:24 7,3 C 6,7 C 6,1 C 83 % 1018,7 hPa 0,0 l/m 0 min 0 min 0 W/m 12,9 km/h (3 Bft) 97,83 %
15.03.2020 00:26 7,3 C 6,7 C 6,1 C 83 % 1018,7 hPa 0,0 l/m 0 min 0 min 0 W/m 19,3 km/h (3 Bft) 97,87 %
15.03.2020 00:28 7,3 C 6,7 C 6,1 C 83 % 1018,7 hPa 0,0 l/m 0 min 0 min 0 W/m 3,2 km/h (1 Bft) 89,36 %
15.03.2020 00:30 7,3 C 6,7 C 6,1 C 83 % 1018,7 hPa 0,0 l/m 0 min 0 min 0 W/m 16,1 km/h (3 Bft) 97,87 %
15.03.2020 00:32 7,3 C 6,7 C 5,6 C 83 % 1018,7 hPa 0,0 l/m 0 min 0 min 0 W/m 22,5 km/h (4 Bft) 95,74 %
15.03.2020 00:34 7,3 C 6,7 C 5,6 C 83 % 1018,7 hPa 0,0 l/m 0 min 0 min 0 W/m 3,2 km/h (1 Bft) 93,62 %
15.03.2020 00:36 7,2 C 6,7 C 5,6 C 83 % 1018,7 hPa 0,0 l/m 0 min 0 min 0 W/m 0,0 km/h (0 Bft) 93,48 %
15.03.2020 00:38 7,2 C 6,7 C 5,6 C 84 % 1018,7 hPa 0,0 l/m 0 min 0 min 0 W/m 0,0 km/h (0 Bft) 93,62 %
15.03.2020 00:40 7,2 C 6,7 C 5,6 C 84 % 1018,7 hPa 0,0 l/m 0 min 0 min 0 W/m 0,0 km/h (0 Bft) 95,74 %
15.03.2020 00:42 7,2 C 6,1 C 5,6 C 84 % 1018,7 hPa 0,0 l/m 0 min 0 min 0 W/m 16,1 km/h (3 Bft) 93,62 %
15.03.2020 00:44 7,2 C 6,1 C 5,6 C 84 % 1018,6 hPa 0,0 l/m 0 min 0 min 0 W/m 16,1 km/h (3 Bft) 91,49 %
15.03.2020 00:46 7,2 C 6,1 C 5,6 C 84 % 1018,7 hPa 0,0 l/m 0 min 0 min 0 W/m 0,0 km/h (0 Bft) 93,48 %
15.03.2020 00:48 7,2 C 6,1 C 5,6 C 84 % 1018,6 hPa 0,0 l/m 0 min 0 min 0 W/m 3,2 km/h (1 Bft) 91,49 %
15.03.2020 00:50 7,2 C 6,1 C 5,6 C 84 % 1018,6 hPa 0,0 l/m 0 min 0 min 0 W/m 0,0 km/h (0 Bft) 95,74 %
15.03.2020 00:52 7,2 C 6,1 C 5,6 C 84 % 1018,6 hPa 0,0 l/m 0 min 0 min 0 W/m 0,0 km/h (0 Bft) 93,62 %
15.03.2020 00:54 7,2 C 6,1 C 5,6 C 84 % 1018,6 hPa 0,0 l/m 0 min 0 min 0 W/m 0,0 km/h (0 Bft) 93,62 %
15.03.2020 00:56 7,2 C 6,1 C 5,6 C 84 % 1018,6 hPa 0,0 l/m 0 min 0 min 0 W/m 0,0 km/h (0 Bft) 95,74 %
15.03.2020 00:58 7,1 C 6,1 C 5,6 C 84 % 1018,5 hPa 0,0 l/m 0 min 0 min 0 W/m 0,0 km/h (0 Bft) 97,83 %
15.03.2020 01:00 7,1 C 6,1 C 5,6 C 84 % 1018,5 hPa 0,0 l/m 0 min 0 min 0 W/m 0,0 km/h (0 Bft) 97,87 %
15.03.2020 01:02 7,1 C 6,1 C 5,6 C 84 % 1018,5 hPa 0,0 l/m 0 min 0 min 0 W/m 0,0 km/h (0 Bft) 97,87 %
15.03.2020 01:04 7,1 C 6,1 C 5,6 C 84 % 1018,5 hPa 0,0 l/m 0 min 0 min 0 W/m 0,0 km/h (0 Bft) 97,87 %
15.03.2020 01:06 7,1 C 6,1 C 5,6 C 84 % 1018,4 hPa 0,0 l/m 0 min 0 min 0 W/m 0,0 km/h (0 Bft) 100,00 %
15.03.2020 01:08 7,1 C 6,1 C 5,6 C 84 % 1018,4 hPa 0,0 l/m 0 min 0 min 0 W/m 0,0 km/h (0 Bft) 100,00 %
15.03.2020 01:10 7,1 C 6,1 C 5,6 C 84 % 1018,4 hPa 0,0 l/m 0 min 0 min 0 W/m 0,0 km/h (0 Bft) 97,83 %
15.03.2020 01:12 7,1 C 6,1 C 5,6 C 85 % 1018,4 hPa 0,0 l/m 0 min 0 min 0 W/m 3,2 km/h (1 Bft) 97,87 %
15.03.2020 01:14 7,1 C 6,1 C 5,6 C 85 % 1018,4 hPa 0,0 l/m 0 min 0 min 0 W/m 16,1 km/h (3 Bft) 97,87 %
15.03.2020 01:16 7,1 C 6,1 C 5,6 C 85 % 1018,4 hPa 0,0 l/m 0 min 0 min 0 W/m 9,7 km/h (2 Bft) 100,00 %
15.03.2020 01:18 7,1 C 6,1 C 5,6 C 85 % 1018,4 hPa 0,0 l/m 0 min 0 min 0 W/m 0,0 km/h (0 Bft) 97,87 %
15.03.2020 01:20 7,1 C 6,1 C 5,6 C 85 % 1018,4 hPa 0,0 l/m 0 min 0 min 0 W/m 0,0 km/h (0 Bft) 100,00 %
15.03.2020 01:22 7,0 C 6,1 C 5,6 C 85 % 1018,3 hPa 0,0 l/m 0 min 0 min 0 W/m 0,0 km/h (0 Bft) 93,48 %
15.03.2020 01:24 7,0 C 6,1 C 5,6 C 85 % 1018,3 hPa 0,0 l/m 0 min 0 min 0 W/m 0,0 km/h (0 Bft) 97,87 %
15.03.2020 01:26 7,0 C 6,1 C 5,6 C 85 % 1018,3 hPa 0,0 l/m 0 min 0 min 0 W/m 0,0 km/h (0 Bft) 95,74 %
15.03.2020 01:28 7,0 C 6,1 C 5,6 C 85 % 1018,3 hPa 0,0 l/m 0 min 0 min 0 W/m 16,1 km/h (3 Bft) 97,87 %
15.03.2020 01:30 7,0 C 6,1 C 5,6 C 85 % 1018,3 hPa 0,0 l/m 0 min 0 min 0 W/m 12,9 km/h (3 Bft) 97,87 %
15.03.2020 01:32 7,0 C 6,1 C 5,6 C 85 % 1018,3 hPa 0,0 l/m 0 min 0 min 0 W/m 0,0 km/h (0 Bft) 95,74 %
15.03.2020 01:34 7,0 C 6,1 C 5,6 C 85 % 1018,2 hPa 0,0 l/m 0 min 0 min 0 W/m 0,0 km/h (0 Bft) 97,83 %
15.03.2020 01:36 7,0 C 6,1 C 5,6 C 85 % 1018,2 hPa 0,0 l/m 0 min 0 min 0 W/m 0,0 km/h (0 Bft) 95,74 %
15.03.2020 01:38 7,0 C 6,1 C 5,6 C 85 % 1018,2 hPa 0,0 l/m 0 min 0 min 0 W/m 3,2 km/h (1 Bft) 97,87 %
15.03.2020 01:40 7,0 C 6,1 C 5,6 C 85 % 1018,2 hPa 0,0 l/m 0 min 0 min 0 W/m 0,0 km/h (0 Bft) 97,87 %
15.03.2020 01:42 7,0 C 6,1 C 5,6 C 85 % 1018,2 hPa 0,0 l/m 0 min 0 min 0 W/m 0,0 km/h (0 Bft) 97,87 %
15.03.2020 01:44 7,0 C 6,1 C 5,6 C 85 % 1018,2 hPa 0,0 l/m 0 min 0 min 0 W/m 0,0 km/h (0 Bft) 63,83 %
15.03.2020 01:46 7,0 C 6,7 C 5,6 C 85 % 1018,2 hPa 0,0 l/m 0 min 0 min 0 W/m 0,0 km/h (0 Bft) 80,65 %
15.03.2020 01:48 7,1 C 6,7 C 5,6 C 85 % 1018,2 hPa 0,0 l/m 0 min 0 min 0 W/m 0,0 km/h (0 Bft) 95,74 %
15.03.2020 01:50 7,0 C 6,7 C 5,6 C 85 % 1018,2 hPa 0,0 l/m 0 min 0 min 0 W/m 0,0 km/h (0 Bft) 97,87 %
15.03.2020 01:52 7,1 C 6,7 C 6,1 C 85 % 1018,2 hPa 0,0 l/m 0 min 0 min 0 W/m 0,0 km/h (0 Bft) 95,74 %
15.03.2020 01:54 7,1 C 6,7 C 6,1 C 85 % 1018,1 hPa 0,0 l/m 0 min 0 min 0 W/m 0,0 km/h (0 Bft) 95,74 %
15.03.2020 01:56 7,1 C 6,7 C 6,1 C 85 % 1018,1 hPa 0,0 l/m 0 min 0 min 0 W/m 0,0 km/h (0 Bft) 97,83 %
15.03.2020 01:58 7,1 C 6,7 C 6,1 C 85 % 1018,1 hPa 0,0 l/m 0 min 0 min 0 W/m 19,3 km/h (3 Bft) 97,87 %
15.03.2020 02:00 7,1 C 6,7 C 6,1 C 85 % 1018,1 hPa 0,0 l/m 0 min 0 min 0 W/m 19,3 km/h (3 Bft) 95,74 %
15.03.2020 02:02 7,1 C 6,7 C 6,1 C 85 % 1018,1 hPa 0,0 l/m 0 min 0 min 0 W/m 12,9 km/h (3 Bft) 95,74 %
15.03.2020 02:04 7,1 C 6,7 C 6,1 C 85 % 1018,0 hPa 0,0 l/m 0 min 0 min 0 W/m 22,5 km/h (4 Bft) 95,74 %
15.03.2020 02:06 7,1 C 6,7 C 6,1 C 85 % 1018,0 hPa 0,0 l/m 0 min 0 min 0 W/m 22,5 km/h (4 Bft) 95,74 %
15.03.2020 02:08 7,1 C 6,7 C 6,1 C 85 % 1017,9 hPa 0,0 l/m 0 min 0 min 0 W/m 0,0 km/h (0 Bft) 100,00 %
15.03.2020 02:10 7,1 C 6,7 C 6,1 C 85 % 1017,9 hPa 0,0 l/m 0 min 0 min 0 W/m 12,9 km/h (3 Bft) 97,87 %
15.03.2020 02:12 7,1 C 6,7 C 6,1 C 85 % 1017,9 hPa 0,0 l/m 0 min 0 min 0 W/m 19,3 km/h (3 Bft) 97,87 %
15.03.2020 02:14 7,1 C 6,7 C 6,1 C 85 % 1017,9 hPa 0,0 l/m 0 min 0 min 0 W/m 0,0 km/h (0 Bft) 95,74 %
15.03.2020 02:16 7,1 C 6,7 C 6,1 C 84 % 1017,9 hPa 0,0 l/m 0 min 0 min 0 W/m 22,5 km/h (4 Bft) 95,74 %
15.03.2020 02:18 7,2 C 6,7 C 6,1 C 84 % 1017,9 hPa 0,0 l/m 0 min 0 min 0 W/m 29,0 km/h (5 Bft) 97,87 %
15.03.2020 02:20 7,2 C 6,7 C 6,1 C 84 % 1017,9 hPa 0,0 l/m 0 min 0 min 0 W/m 12,9 km/h (3 Bft) 100,00 %
15.03.2020 02:22 7,2 C 6,7 C 6,1 C 84 % 1017,8 hPa 0,0 l/m 0 min 0 min 0 W/m 0,0 km/h (0 Bft) 93,62 %
15.03.2020 02:24 7,2 C 6,7 C 6,1 C 84 % 1017,8 hPa 0,0 l/m 0 min 0 min 0 W/m 22,5 km/h (4 Bft) 93,62 %
15.03.2020 02:26 7,2 C 6,7 C 6,1 C 84 % 1017,8 hPa 0,0 l/m 0 min 0 min 0 W/m 12,9 km/h (3 Bft) 97,87 %
15.03.2020 02:28 7,2 C 6,7 C 6,1 C 84 % 1017,8 hPa 0,0 l/m 0 min 0 min 0 W/m 19,3 km/h (3 Bft) 97,87 %
15.03.2020 02:30 7,2 C 6,7 C 6,1 C 84 % 1017,7 hPa 0,0 l/m 0 min 0 min 0 W/m 19,3 km/h (3 Bft) 97,87 %
15.03.2020 02:32 7,2 C 6,7 C 6,1 C 84 % 1017,8 hPa 0,0 l/m 0 min 0 min 0 W/m 0,0 km/h (0 Bft) 97,83 %
15.03.2020 02:34 7,2 C 6,7 C 6,1 C 84 % 1017,7 hPa 0,0 l/m 0 min 0 min 0 W/m 3,2 km/h (1 Bft) 97,87 %
15.03.2020 02:36 7,2 C 6,7 C 6,1 C 84 % 1017,7 hPa 0,0 l/m 0 min 0 min 0 W/m 6,4 km/h (2 Bft) 95,74 %
15.03.2020 02:38 7,2 C 6,7 C 6,1 C 84 % 1017,7 hPa 0,0 l/m 0 min 0 min 0 W/m 3,2 km/h (1 Bft) 95,74 %
15.03.2020 02:40 7,2 C 6,7 C 6,1 C 84 % 1017,7 hPa 0,0 l/m 0 min 0 min 0 W/m 0,0 km/h (0 Bft) 97,87 %
15.03.2020 02:42 7,2 C 6,7 C 6,1 C 84 % 1017,7 hPa 0,0 l/m 0 min 0 min 0 W/m 0,0 km/h (0 Bft) 95,65 %
15.03.2020 02:44 7,2 C 6,7 C 6,1 C 84 % 1017,6 hPa 0,0 l/m 0 min 0 min 0 W/m 0,0 km/h (0 Bft) 97,87 %
15.03.2020 02:46 7,2 C 6,7 C 6,1 C 84 % 1017,7 hPa 0,0 l/m 0 min 0 min 0 W/m 0,0 km/h (0 Bft) 97,87 %
15.03.2020 02:48 7,2 C 6,7 C 6,1 C 84 % 1017,7 hPa 0,0 l/m 0 min 0 min 0 W/m 0,0 km/h (0 Bft) 95,74 %
15.03.2020 02:50 7,2 C 6,7 C 6,1 C 84 % 1017,6 hPa 0,0 l/m 0 min 0 min 0 W/m 0,0 km/h (0 Bft) 95,74 %
15.03.2020 02:52 7,2 C 6,7 C 6,1 C 84 % 1017,7 hPa 0,0 l/m 0 min 0 min 0 W/m 0,0 km/h (0 Bft) 97,87 %
15.03.2020 02:54 7,2 C 6,7 C 6,1 C 84 % 1017,6 hPa 0,0 l/m 0 min 0 min 0 W/m 0,0 km/h (0 Bft) 97,87 %
15.03.2020 02:56 7,2 C 6,7 C 6,1 C 84 % 1017,6 hPa 0,0 l/m 0 min 0 min 0 W/m 0,0 km/h (0 Bft) 97,83 %
15.03.2020 02:58 7,2 C 6,7 C 6,1 C 84 % 1017,6 hPa 0,0 l/m 0 min 0 min 0 W/m 0,0 km/h (0 Bft) 95,74 %
15.03.2020 03:00 7,2 C 6,7 C 6,1 C 84 % 1017,6 hPa 0,0 l/m 0 min 0 min 0 W/m 0,0 km/h (0 Bft) 97,87 %
15.03.2020 03:02 7,2 C 6,7 C 6,1 C 84 % 1017,5 hPa 0,0 l/m 0 min 0 min 0 W/m 3,2 km/h (1 Bft) 95,74 %
15.03.2020 03:04 7,2 C 6,7 C 6,1 C 84 % 1017,5 hPa 0,0 l/m 0 min 0 min 0 W/m 16,1 km/h (3 Bft) 95,74 %
15.03.2020 03:06 7,2 C 6,7 C 5,6 C 84 % 1017,5 hPa 0,0 l/m 0 min 0 min 0 W/m 0,0 km/h (0 Bft) 97,87 %
15.03.2020 03:08 7,2 C 6,1 C 5,6 C 84 % 1017,5 hPa 0,0 l/m 0 min 0 min 0 W/m 16,1 km/h (3 Bft) 55,56 %
15.03.2020 03:10 7,2 C 6,1 C 5,6 C 84 % 1017,5 hPa 0,0 l/m 0 min 0 min 0 W/m 6,4 km/h (2 Bft) 97,87 %
15.03.2020 03:12 7,2 C 6,1 C 5,6 C 84 % 1017,5 hPa 0,0 l/m 0 min 0 min 0 W/m 0,0 km/h (0 Bft) 95,74 %
15.03.2020 03:14 7,1 C 6,1 C 5,6 C 84 % 1017,4 hPa 0,0 l/m 0 min 0 min 0 W/m 3,2 km/h (1 Bft) 97,87 %
15.03.2020 03:16 7,1 C 6,7 C 5,6 C 84 % 1017,4 hPa 0,0 l/m 0 min 0 min 0 W/m 0,0 km/h (0 Bft) 93,62 %
15.03.2020 03:18 7,1 C 6,1 C 5,6 C 84 % 1017,3 hPa 0,0 l/m 0 min 0 min 0 W/m 0,0 km/h (0 Bft) 97,83 %
15.03.2020 03:20 7,1 C 6,7 C 5,6 C 84 % 1017,3 hPa 0,0 l/m 0 min 0 min 0 W/m 0,0 km/h (0 Bft) 97,87 %
15.03.2020 03:22 7,1 C 6,7 C 5,6 C 84 % 1017,3 hPa 0,0 l/m 0 min 0 min 0 W/m 0,0 km/h (0 Bft) 97,87 %
15.03.2020 03:24 7,1 C 6,7 C 5,6 C 84 % 1017,3 hPa 0,0 l/m 0 min 0 min 0 W/m 0,0 km/h (0 Bft) 95,74 %
15.03.2020 03:26 7,1 C 6,7 C 6,1 C 84 % 1017,3 hPa 0,0 l/m 0 min 0 min 0 W/m 16,1 km/h (3 Bft) 97,87 %
15.03.2020 03:28 7,1 C 6,7 C 6,1 C 84 % 1017,3 hPa 0,0 l/m 0 min 0 min 0 W/m 0,0 km/h (0 Bft) 97,87 %
15.03.2020 03:30 7,1 C 6,7 C 6,1 C 84 % 1017,3 hPa 0,0 l/m 0 min 0 min 0 W/m 0,0 km/h (0 Bft) 97,83 %
15.03.2020 03:32 7,1 C 6,7 C 6,1 C 84 % 1017,2 hPa 0,0 l/m 0 min 0 min 0 W/m 0,0 km/h (0 Bft) 97,87 %
15.03.2020 03:34 7,1 C 6,7 C 6,1 C 84 % 1017,3 hPa 0,0 l/m 0 min 0 min 0 W/m 16,1 km/h (3 Bft) 93,62 %
15.03.2020 03:36 7,1 C 6,7 C 6,1 C 84 % 1017,2 hPa 0,0 l/m 0 min 0 min 0 W/m 16,1 km/h (3 Bft) 95,74 %
15.03.2020 03:38 7,1 C 6,7 C 6,1 C 84 % 1017,2 hPa 0,0 l/m 0 min 0 min 0 W/m 0,0 km/h (0 Bft) 95,74 %
15.03.2020 03:40 7,2 C 6,7 C 6,1 C 84 % 1017,1 hPa 0,0 l/m 0 min 0 min 0 W/m 0,0 km/h (0 Bft) 97,87 %
15.03.2020 03:42 7,2 C 6,7 C 6,1 C 84 % 1017,1 hPa 0,0 l/m 0 min 0 min 0 W/m 0,0 km/h (0 Bft) 97,83 %
15.03.2020 03:44 7,2 C 6,7 C 6,1 C 84 % 1017,1 hPa 0,0 l/m 0 min 0 min 0 W/m 16,1 km/h (3 Bft) 97,87 %
15.03.2020 03:46 7,2 C 6,7 C 6,1 C 84 % 1017,2 hPa 0,0 l/m 0 min 0 min 0 W/m 22,5 km/h (4 Bft) 95,74 %
15.03.2020 03:48 7,2 C 6,7 C 6,1 C 84 % 1017,1 hPa 0,0 l/m 0 min 0 min 0 W/m 0,0 km/h (0 Bft) 97,87 %
15.03.2020 03:50 7,2 C 6,7 C 6,1 C 84 % 1017,1 hPa 0,0 l/m 0 min 0 min 0 W/m 3,2 km/h (1 Bft) 93,62 %
15.03.2020 03:52 7,2 C 6,7 C 6,1 C 84 % 1017,1 hPa 0,0 l/m 0 min 0 min 0 W/m 0,0 km/h (0 Bft) 100,00 %
15.03.2020 03:54 7,2 C 6,7 C 6,1 C 84 % 1017,1 hPa 0,0 l/m 0 min 0 min 0 W/m 3,2 km/h (1 Bft) 100,00 %
15.03.2020 03:56 7,2 C 6,7 C 6,1 C 84 % 1017,1 hPa 0,0 l/m 0 min 0 min 0 W/m 0,0 km/h (0 Bft) 100,00 %
15.03.2020 03:58 7,2 C 6,7 C 6,1 C 84 % 1017,1 hPa 0,0 l/m 0 min 0 min 0 W/m 0,0 km/h (0 Bft) 95,74 %
15.03.2020 04:00 7,2 C 6,7 C 6,1 C 84 % 1017,0 hPa 0,0 l/m 0 min 0 min 0 W/m 0,0 km/h (0 Bft) 93,62 %
15.03.2020 04:02 7,2 C 6,7 C 6,1 C 84 % 1017,0 hPa 0,0 l/m 0 min 0 min 0 W/m 3,2 km/h (1 Bft) 97,44 %
15.03.2020 04:04 7,2 C 6,7 C 6,1 C 84 % 1017,0 hPa 0,0 l/m 0 min 0 min 0 W/m 3,2 km/h (1 Bft) 100,00 %
15.03.2020 04:06 7,3 C 6,7 C 6,1 C 84 % 1016,9 hPa 0,0 l/m 0 min 0 min 0 W/m 3,2 km/h (1 Bft) 95,74 %
15.03.2020 04:08 7,2 C 6,7 C 6,1 C 84 % 1016,9 hPa 0,0 l/m 0 min 0 min 0 W/m 12,9 km/h (3 Bft) 95,74 %
15.03.2020 04:10 7,3 C 6,7 C 6,1 C 84 % 1016,9 hPa 0,0 l/m 0 min 0 min 0 W/m 0,0 km/h (0 Bft) 97,87 %
15.03.2020 04:12 7,2 C 6,7 C 6,1 C 84 % 1016,9 hPa 0,0 l/m 0 min 0 min 0 W/m 0,0 km/h (0 Bft) 100,00 %
15.03.2020 04:14 7,3 C 6,7 C 6,1 C 84 % 1016,9 hPa 0,0 l/m 0 min 0 min 0 W/m 3,2 km/h (1 Bft) 95,74 %
15.03.2020 04:16 7,3 C 6,7 C 6,1 C 84 % 1016,8 hPa 0,0 l/m 0 min 0 min 0 W/m 0,0 km/h (0 Bft) 100,00 %
15.03.2020 04:18 7,3 C 6,7 C 6,1 C 84 % 1016,9 hPa 0,0 l/m 0 min 0 min 0 W/m 12,9 km/h (3 Bft) 100,00 %
15.03.2020 04:20 7,3 C 6,7 C 6,1 C 84 % 1016,8 hPa 0,0 l/m 0 min 0 min 0 W/m 22,5 km/h (4 Bft) 97,87 %
15.03.2020 04:22 7,3 C 6,7 C 6,1 C 84 % 1016,9 hPa 0,0 l/m 0 min 0 min 0 W/m 0,0 km/h (0 Bft) 100,00 %
15.03.2020 04:24 7,3 C 6,7 C 6,1 C 84 % 1016,8 hPa 0,0 l/m 0 min 0 min 0 W/m 0,0 km/h (0 Bft) 100,00 %
15.03.2020 04:26 7,3 C 6,7 C 6,1 C 84 % 1016,8 hPa 0,0 l/m 0 min 0 min 0 W/m 0,0 km/h (0 Bft) 100,00 %
15.03.2020 04:28 7,3 C 6,7 C 6,1 C 84 % 1016,8 hPa 0,0 l/m 0 min 0 min 0 W/m 0,0 km/h (0 Bft) 100,00 %
15.03.2020 04:30 7,3 C 6,7 C 6,1 C 84 % 1016,8 hPa 0,0 l/m 0 min 0 min 0 W/m 16,1 km/h (3 Bft) 100,00 %
15.03.2020 04:32 7,3 C 6,7 C 6,1 C 83 % 1016,8 hPa 0,0 l/m 0 min 0 min 0 W/m 0,0 km/h (0 Bft) 97,87 %
15.03.2020 04:34 7,3 C 6,7 C 6,1 C 83 % 1016,8 hPa 0,0 l/m 0 min 0 min 0 W/m 0,0 km/h (0 Bft) 100,00 %
15.03.2020 04:36 7,3 C 6,7 C 6,1 C 83 % 1016,7 hPa 0,0 l/m 0 min 0 min 0 W/m 3,2 km/h (1 Bft) 100,00 %
15.03.2020 04:38 7,2 C 6,7 C 6,1 C 83 % 1016,7 hPa 0,0 l/m 0 min 0 min 0 W/m 19,3 km/h (3 Bft) 100,00 %
15.03.2020 04:40 7,3 C 6,7 C 6,1 C 83 % 1016,7 hPa 0,0 l/m 0 min 0 min 0 W/m 0,0 km/h (0 Bft) 100,00 %
15.03.2020 04:42 7,2 C 6,7 C 6,1 C 83 % 1016,7 hPa 0,0 l/m 0 min 0 min 0 W/m 0,0 km/h (0 Bft) 100,00 %
15.03.2020 04:44 7,2 C 6,7 C 6,1 C 83 % 1016,7 hPa 0,0 l/m 0 min 0 min 0 W/m 12,9 km/h (3 Bft) 100,00 %
15.03.2020 04:46 7,2 C 6,7 C 6,1 C 83 % 1016,7 hPa 0,0 l/m 0 min 0 min 0 W/m 22,5 km/h (4 Bft) 100,00 %
15.03.2020 04:48 7,2 C 6,1 C 5,6 C 83 % 1016,7 hPa 0,0 l/m 0 min 0 min 0 W/m 6,4 km/h (2 Bft) 100,00 %
15.03.2020 04:50 7,2 C 6,1 C 5,6 C 83 % 1016,7 hPa 0,0 l/m 0 min 0 min 0 W/m 0,0 km/h (0 Bft) 100,00 %
15.03.2020 04:52 7,2 C 6,1 C 5,6 C 83 % 1016,7 hPa 0,0 l/m 0 min 0 min 0 W/m 19,3 km/h (3 Bft) 100,00 %
15.03.2020 04:54 7,1 C 6,1 C 5,6 C 83 % 1016,7 hPa 0,0 l/m 0 min 0 min 0 W/m 3,2 km/h (1 Bft) 100,00 %
15.03.2020 04:56 7,1 C 6,1 C 5,6 C 83 % 1016,6 hPa 0,0 l/m 0 min 0 min 0 W/m 25,7 km/h (4 Bft) 100,00 %
15.03.2020 04:58 7,1 C 6,1 C 5,6 C 83 % 1016,6 hPa 0,0 l/m 0 min 0 min 0 W/m 0,0 km/h (0 Bft) 100,00 %
15.03.2020 05:00 7,1 C 6,1 C 5,6 C 83 % 1016,6 hPa 0,0 l/m 0 min 0 min 0 W/m 3,2 km/h (1 Bft) 95,74 %
15.03.2020 05:02 7,0 C 6,1 C 5,6 C 83 % 1016,6 hPa 0,0 l/m 0 min 0 min 0 W/m 0,0 km/h (0 Bft) 100,00 %
15.03.2020 05:04 7,0 C 6,1 C 5,6 C 83 % 1016,6 hPa 0,0 l/m 0 min 0 min 0 W/m 0,0 km/h (0 Bft) 100,00 %
15.03.2020 05:06 7,0 C 6,1 C 5,6 C 83 % 1016,6 hPa 0,0 l/m 0 min 0 min 0 W/m 0,0 km/h (0 Bft) 97,87 %
15.03.2020 05:08 6,9 C 6,1 C 5,6 C 83 % 1016,6 hPa 0,0 l/m 0 min 0 min 0 W/m 0,0 km/h (0 Bft) 97,87 %
15.03.2020 05:10 6,9 C 6,1 C 5,6 C 83 % 1016,6 hPa 0,0 l/m 0 min 0 min 0 W/m 0,0 km/h (0 Bft) 97,87 %
15.03.2020 05:12 6,9 C 6,1 C 5,6 C 83 % 1016,7 hPa 0,0 l/m 0 min 0 min 0 W/m 0,0 km/h (0 Bft) 100,00 %
15.03.2020 05:14 6,8 C 6,1 C 5,6 C 84 % 1016,6 hPa 0,0 l/m 0 min 0 min 0 W/m 16,1 km/h (3 Bft) 100,00 %
15.03.2020 05:16 6,8 C 6,1 C 5,6 C 84 % 1016,6 hPa 0,0 l/m 0 min 0 min 0 W/m 0,0 km/h (0 Bft) 100,00 %
15.03.2020 05:18 6,8 C 6,1 C 5,0 C 84 % 1016,6 hPa 0,0 l/m 0 min 0 min 0 W/m 0,0 km/h (0 Bft) 100,00 %
15.03.2020 05:20 6,8 C 6,1 C 5,0 C 84 % 1016,6 hPa 0,0 l/m 0 min 0 min 0 W/m 16,1 km/h (3 Bft) 97,87 %
15.03.2020 05:22 6,8 C 5,6 C 5,0 C 84 % 1016,5 hPa 0,0 l/m 0 min 0 min 0 W/m 0,0 km/h (0 Bft) 100,00 %
15.03.2020 05:24 6,7 C 5,6 C 5,0 C 84 % 1016,6 hPa 0,0 l/m 0 min 0 min 0 W/m 0,0 km/h (0 Bft) 100,00 %
15.03.2020 05:26 6,7 C 5,6 C 5,0 C 84 % 1016,6 hPa 0,0 l/m 0 min 0 min 0 W/m 0,0 km/h (0 Bft) 97,83 %
15.03.2020 05:28 6,7 C 5,6 C 5,0 C 84 % 1016,6 hPa 0,0 l/m 0 min 0 min 0 W/m 0,0 km/h (0 Bft) 100,00 %
15.03.2020 05:30 6,7 C 5,6 C 5,0 C 84 % 1016,6 hPa 0,0 l/m 0 min 0 min 0 W/m 0,0 km/h (0 Bft) 97,87 %
15.03.2020 05:32 6,7 C 5,6 C 5,0 C 84 % 1016,6 hPa 0,0 l/m 0 min 0 min 0 W/m 0,0 km/h (0 Bft) 95,74 %
15.03.2020 05:34 6,7 C 5,6 C 5,0 C 84 % 1016,5 hPa 0,0 l/m 0 min 0 min 0 W/m 6,4 km/h (2 Bft) 100,00 %
15.03.2020 05:36 6,6 C 5,6 C 5,0 C 84 % 1016,6 hPa 0,0 l/m 0 min 0 min 0 W/m 0,0 km/h (0 Bft) 100,00 %
15.03.2020 05:38 6,6 C 5,6 C 5,0 C 84 % 1016,5 hPa 0,0 l/m 0 min 0 min 0 W/m 16,1 km/h (3 Bft) 100,00 %
15.03.2020 05:40 6,6 C 5,6 C 5,0 C 84 % 1016,5 hPa 0,0 l/m 0 min 0 min 0 W/m 3,2 km/h (1 Bft) 97,87 %
15.03.2020 05:42 6,6 C 5,6 C 5,0 C 84 % 1016,6 hPa 0,0 l/m 0 min 0 min 0 W/m 6,4 km/h (2 Bft) 97,87 %
15.03.2020 05:44 6,6 C 5,6 C 5,0 C 85 % 1016,6 hPa 0,0 l/m 0 min 0 min 0 W/m 0,0 km/h (0 Bft) 100,00 %
15.03.2020 05:46 6,6 C 5,6 C 5,0 C 85 % 1016,6 hPa 0,0 l/m 0 min 0 min 0 W/m 0,0 km/h (0 Bft) 100,00 %
15.03.2020 05:48 6,5 C 5,6 C 5,0 C 85 % 1016,6 hPa 0,0 l/m 0 min 0 min 0 W/m 0,0 km/h (0 Bft) 95,65 %
15.03.2020 05:50 6,5 C 5,6 C 5,0 C 85 % 1016,5 hPa 0,0 l/m 0 min 0 min 0 W/m 0,0 km/h (0 Bft) 97,87 %
15.03.2020 05:52 6,5 C 5,6 C 5,0 C 85 % 1016,5 hPa 0,0 l/m 0 min 0 min 0 W/m 19,3 km/h (3 Bft) 91,49 %
15.03.2020 05:54 6,5 C 5,6 C 5,0 C 85 % 1016,5 hPa 0,0 l/m 0 min 0 min 0 W/m 19,3 km/h (3 Bft) 93,62 %
15.03.2020 05:56 6,5 C 5,6 C 5,0 C 85 % 1016,4 hPa 0,0 l/m 0 min 0 min 0 W/m 19,3 km/h (3 Bft) 95,74 %
15.03.2020 05:58 6,5 C 5,6 C 5,0 C 85 % 1016,4 hPa 0,0 l/m 0 min 0 min 0 W/m 19,3 km/h (3 Bft) 95,74 %
15.03.2020 06:00 6,5 C 5,6 C 5,0 C 85 % 1016,4 hPa 0,0 l/m 0 min 0 min 0 W/m 0,0 km/h (0 Bft) 95,65 %
15.03.2020 06:02 6,5 C 5,6 C 5,0 C 85 % 1016,5 hPa 0,0 l/m 0 min 0 min 0 W/m 0,0 km/h (0 Bft) 91,49 %
15.03.2020 06:04 6,5 C 5,6 C 5,0 C 85 % 1016,4 hPa 0,0 l/m 0 min 0 min 0 W/m 0,0 km/h (0 Bft) 91,49 %
15.03.2020 06:08 6,5 C 5,6 C 5,0 C 85 % 1016,4 hPa 0,0 l/m 0 min 0 min 0 W/m 0,0 km/h (0 Bft) 95,74 %
15.03.2020 06:10 6,4 C 5,6 C 5,0 C 85 % 1016,5 hPa 0,0 l/m 0 min 0 min 0 W/m 0,0 km/h (0 Bft) 95,74 %
15.03.2020 06:12 6,4 C 5,6 C 5,0 C 85 % 1016,4 hPa 0,0 l/m 0 min 0 min 0 W/m 0,0 km/h (0 Bft) 95,65 %
15.03.2020 06:14 6,4 C 5,6 C 5,0 C 85 % 1016,4 hPa 0,0 l/m 0 min 0 min 0 W/m 0,0 km/h (0 Bft) 93,62 %
15.03.2020 06:16 6,4 C 5,6 C 5,0 C 85 % 1016,4 hPa 0,0 l/m 0 min 0 min 0 W/m 0,0 km/h (0 Bft) 91,49 %
15.03.2020 06:18 6,4 C 5,6 C 5,0 C 85 % 1016,4 hPa 0,0 l/m 0 min 0 min 0 W/m 0,0 km/h (0 Bft) 93,62 %
15.03.2020 06:20 6,4 C 5,6 C 5,0 C 85 % 1016,4 hPa 0,0 l/m 0 min 0 min 0 W/m 3,2 km/h (1 Bft) 95,74 %
15.03.2020 06:22 6,4 C 5,6 C 5,0 C 85 % 1016,4 hPa 0,0 l/m 0 min 0 min 0 W/m 0,0 km/h (0 Bft) 95,74 %
15.03.2020 06:24 6,3 C 5,6 C 5,0 C 85 % 1016,4 hPa 0,0 l/m 0 min 0 min 0 W/m 0,0 km/h (0 Bft) 95,65 %
15.03.2020 06:26 6,3 C 5,6 C 5,0 C 85 % 1016,4 hPa 0,0 l/m 0 min 0 min 0 W/m 6,4 km/h (2 Bft) 89,36 %
15.03.2020 06:28 6,3 C 5,6 C 5,0 C 85 % 1016,4 hPa 0,0 l/m 0 min 0 min 0 W/m 12,9 km/h (3 Bft) 95,74 %
15.03.2020 06:30 6,3 C 5,6 C 5,0 C 85 % 1016,4 hPa 0,0 l/m 0 min 0 min 0 W/m 19,3 km/h (3 Bft) 91,49 %
15.03.2020 06:32 6,3 C 5,6 C 5,0 C 85 % 1016,4 hPa 0,0 l/m 0 min 0 min 0 W/m 6,4 km/h (2 Bft) 89,36 %
15.03.2020 06:34 6,3 C 5,6 C 5,0 C 85 % 1016,4 hPa 0,0 l/m 0 min 0 min 0 W/m 0,0 km/h (0 Bft) 95,74 %
15.03.2020 06:36 6,3 C 5,6 C 5,0 C 85 % 1016,4 hPa 0,0 l/m 0 min 0 min 0 W/m 0,0 km/h (0 Bft) 93,48 %
15.03.2020 06:38 6,3 C 5,6 C 5,0 C 85 % 1016,5 hPa 0,0 l/m 0 min 0 min 0 W/m 0,0 km/h (0 Bft) 91,49 %
15.03.2020 06:40 6,3 C 5,6 C 5,0 C 85 % 1016,4 hPa 0,0 l/m 0 min 0 min 0 W/m 0,0 km/h (0 Bft) 91,49 %
15.03.2020 06:42 6,3 C 5,6 C 5,0 C 85 % 1016,5 hPa 0,0 l/m 0 min 0 min 0 W/m 0,0 km/h (0 Bft) 95,74 %
15.03.2020 06:44 6,3 C 5,6 C 5,0 C 85 % 1016,5 hPa 0,0 l/m 0 min 0 min 0 W/m 0,0 km/h (0 Bft) 95,74 %
15.03.2020 06:46 6,2 C 5,6 C 5,0 C 85 % 1016,4 hPa 0,0 l/m 0 min 0 min 0 W/m 0,0 km/h (0 Bft) 93,62 %
15.03.2020 06:48 6,2 C 5,6 C 5,0 C 85 % 1016,4 hPa 0,0 l/m 0 min 0 min 0 W/m 0,0 km/h (0 Bft) 93,48 %
15.03.2020 06:50 6,2 C 5,6 C 5,0 C 85 % 1016,4 hPa 0,0 l/m 0 min 0 min 2 W/m 12,9 km/h (3 Bft) 95,74 %
15.03.2020 06:52 6,2 C 5,6 C 5,0 C 85 % 1016,4 hPa 0,0 l/m 0 min 0 min 5 W/m 0,0 km/h (0 Bft) 95,74 %
15.03.2020 06:54 6,2 C 5,6 C 5,0 C 85 % 1016,5 hPa 0,0 l/m 0 min 0 min 7 W/m 0,0 km/h (0 Bft) 97,87 %
15.03.2020 06:56 6,2 C 5,6 C 5,0 C 85 % 1016,5 hPa 0,0 l/m 0 min 0 min 9 W/m 0,0 km/h (0 Bft) 97,87 %
15.03.2020 06:58 6,2 C 5,6 C 5,0 C 85 % 1016,4 hPa 0,0 l/m 0 min 0 min 11 W/m 0,0 km/h (0 Bft) 95,65 %
15.03.2020 07:00 6,2 C 5,6 C 5,0 C 85 % 1016,4 hPa 0,0 l/m 0 min 0 min 12 W/m 3,2 km/h (1 Bft) 93,62 %
15.03.2020 07:02 6,2 C 5,6 C 5,0 C 85 % 1016,4 hPa 0,0 l/m 0 min 0 min 14 W/m 0,0 km/h (0 Bft) 97,87 %
15.03.2020 07:04 6,2 C 5,6 C 5,0 C 85 % 1016,5 hPa 0,0 l/m 0 min 0 min 15 W/m 0,0 km/h (0 Bft) 95,74 %
15.03.2020 07:06 6,2 C 5,6 C 5,0 C 85 % 1016,5 hPa 0,0 l/m 0 min 0 min 17 W/m 12,9 km/h (3 Bft) 97,87 %
15.03.2020 07:08 6,2 C 5,6 C 5,0 C 85 % 1016,5 hPa 0,0 l/m 0 min 0 min 19 W/m 19,3 km/h (3 Bft) 97,87 %
15.03.2020 07:10 6,2 C 5,6 C 5,0 C 85 % 1016,4 hPa 0,0 l/m 0 min 0 min 20 W/m 29,0 km/h (5 Bft) 95,65 %
15.03.2020 07:12 6,2 C 5,6 C 5,0 C 85 % 1016,4 hPa 0,0 l/m 0 min 0 min 22 W/m 3,2 km/h (1 Bft) 95,74 %
15.03.2020 07:14 6,2 C 5,6 C 5,0 C 85 % 1016,4 hPa 0,0 l/m 0 min 0 min 25 W/m 0,0 km/h (0 Bft) 97,87 %
15.03.2020 07:16 6,2 C 5,6 C 5,0 C 85 % 1016,4 hPa 0,0 l/m 0 min 0 min 27 W/m 0,0 km/h (0 Bft) 97,87 %
15.03.2020 07:18 6,2 C 5,6 C 5,0 C 85 % 1016,4 hPa 0,0 l/m 0 min 0 min 28 W/m 3,2 km/h (1 Bft) 97,87 %
15.03.2020 07:20 6,2 C 5,6 C 5,0 C 85 % 1016,3 hPa 0,0 l/m 0 min 0 min 28 W/m 0,0 km/h (0 Bft) 100,00 %
15.03.2020 07:22 6,2 C 5,6 C 5,0 C 85 % 1016,4 hPa 0,0 l/m 0 min 0 min 29 W/m 0,0 km/h (0 Bft) 100,00 %
15.03.2020 07:24 6,2 C 5,6 C 5,0 C 85 % 1016,4 hPa 0,0 l/m 0 min 0 min 31 W/m 0,0 km/h (0 Bft) 100,00 %
15.03.2020 07:26 6,2 C 5,6 C 5,0 C 86 % 1016,4 hPa 0,0 l/m 0 min 0 min 32 W/m 0,0 km/h (0 Bft) 100,00 %
15.03.2020 07:28 6,2 C 5,6 C 5,0 C 86 % 1016,3 hPa 0,0 l/m 0 min 0 min 33 W/m 0,0 km/h (0 Bft) 93,62 %
15.03.2020 07:30 6,2 C 5,6 C 5,0 C 86 % 1016,3 hPa 0,0 l/m 0 min 0 min 33 W/m 19,3 km/h (3 Bft) 100,00 %
15.03.2020 07:32 6,2 C 6,1 C 5,0 C 86 % 1016,3 hPa 0,0 l/m 0 min 0 min 35 W/m 6,4 km/h (2 Bft) 97,87 %
15.03.2020 07:34 6,2 C 6,1 C 5,0 C 86 % 1016,3 hPa 0,0 l/m 0 min 0 min 39 W/m 0,0 km/h (0 Bft) 97,83 %
15.03.2020 07:36 6,2 C 6,1 C 5,0 C 86 % 1016,4 hPa 0,0 l/m 0 min 0 min 41 W/m 12,9 km/h (3 Bft) 100,00 %
15.03.2020 07:38 6,3 C 6,1 C 5,0 C 86 % 1016,3 hPa 0,0 l/m 0 min 0 min 47 W/m 0,0 km/h (0 Bft) 95,74 %
15.03.2020 07:40 6,3 C 6,1 C 5,6 C 86 % 1016,4 hPa 0,0 l/m 0 min 0 min 52 W/m 3,2 km/h (1 Bft) 100,00 %
15.03.2020 07:42 6,3 C 6,1 C 5,6 C 86 % 1016,4 hPa 0,0 l/m 0 min 0 min 55 W/m 22,5 km/h (4 Bft) 100,00 %
15.03.2020 07:44 6,3 C 6,1 C 5,6 C 86 % 1016,4 hPa 0,0 l/m 0 min 0 min 56 W/m 12,9 km/h (3 Bft) 95,74 %
15.03.2020 07:46 6,3 C 6,1 C 5,6 C 86 % 1016,4 hPa 0,0 l/m 0 min 0 min 55 W/m 19,3 km/h (3 Bft) 89,36 %
15.03.2020 07:48 6,4 C 6,1 C 5,6 C 86 % 1016,4 hPa 0,0 l/m 0 min 0 min 52 W/m 0,0 km/h (0 Bft) 97,87 %
15.03.2020 07:50 6,4 C 6,1 C 5,6 C 86 % 1016,5 hPa 0,0 l/m 0 min 0 min 48 W/m 0,0 km/h (0 Bft) 97,87 %
15.03.2020 07:52 6,4 C 6,1 C 5,6 C 86 % 1016,4 hPa 0,0 l/m 0 min 0 min 44 W/m 0,0 km/h (0 Bft) 95,74 %
15.03.2020 07:54 6,4 C 6,1 C 5,6 C 86 % 1016,4 hPa 0,0 l/m 0 min 0 min 42 W/m 0,0 km/h (0 Bft) 95,74 %
15.03.2020 07:56 6,5 C 6,1 C 5,6 C 86 % 1016,5 hPa 0,0 l/m 0 min 0 min 42 W/m 0,0 km/h (0 Bft) 95,65 %
15.03.2020 07:58 6,5 C 6,1 C 5,6 C 86 % 1016,6 hPa 0,0 l/m 0 min 0 min 46 W/m 0,0 km/h (0 Bft) 97,87 %
15.03.2020 08:00 6,5 C 6,1 C 5,6 C 86 % 1016,6 hPa 0,0 l/m 0 min 0 min 47 W/m 0,0 km/h (0 Bft) 97,87 %
15.03.2020 08:02 6,5 C 6,1 C 5,6 C 86 % 1016,6 hPa 0,0 l/m 0 min 0 min 49 W/m 0,0 km/h (0 Bft) 100,00 %
15.03.2020 08:04 6,5 C 6,1 C 5,6 C 86 % 1016,6 hPa 0,0 l/m 0 min 0 min 53 W/m 0,0 km/h (0 Bft) 100,00 %
15.03.2020 08:06 6,6 C 6,7 C 5,6 C 86 % 1016,6 hPa 0,0 l/m 0 min 0 min 55 W/m 0,0 km/h (0 Bft) 97,87 %
15.03.2020 08:08 6,6 C 6,7 C 5,6 C 86 % 1016,6 hPa 0,0 l/m 0 min 0 min 62 W/m 0,0 km/h (0 Bft) 100,00 %
15.03.2020 08:10 6,6 C 6,7 C 5,6 C 86 % 1016,7 hPa 0,0 l/m 0 min 0 min 70 W/m 0,0 km/h (0 Bft) 100,00 %
15.03.2020 08:12 6,6 C 6,7 C 6,1 C 86 % 1016,6 hPa 0,0 l/m 0 min 0 min 78 W/m 0,0 km/h (0 Bft) 100,00 %
15.03.2020 08:14 6,7 C 6,7 C 6,1 C 86 % 1016,7 hPa 0,0 l/m 0 min 0 min 82 W/m 0,0 km/h (0 Bft) 100,00 %
15.03.2020 08:16 6,7 C 6,7 C 6,1 C 86 % 1016,7 hPa 0,0 l/m 0 min 0 min 84 W/m 3,2 km/h (1 Bft) 100,00 %
15.03.2020 08:18 6,7 C 6,7 C 6,1 C 86 % 1016,6 hPa 0,0 l/m 0 min 0 min 84 W/m 0,0 km/h (0 Bft) 100,00 %
15.03.2020 08:20 6,7 C 6,7 C 6,1 C 87 % 1016,7 hPa 0,0 l/m 0 min 0 min 84 W/m 0,0 km/h (0 Bft) 100,00 %
15.03.2020 08:22 6,8 C 7,2 C 6,1 C 87 % 1016,7 hPa 0,0 l/m 0 min 0 min 88 W/m 0,0 km/h (0 Bft) 100,00 %
15.03.2020 08:24 6,8 C 7,2 C 6,1 C 87 % 1016,7 hPa 0,0 l/m 0 min 0 min 90 W/m 0,0 km/h (0 Bft) 100,00 %
15.03.2020 08:26 6,8 C 7,2 C 6,7 C 87 % 1016,6 hPa 0,0 l/m 0 min 0 min 87 W/m 0,0 km/h (0 Bft) 100,00 %
15.03.2020 08:28 6,9 C 7,2 C 6,7 C 87 % 1016,6 hPa 0,0 l/m 0 min 0 min 79 W/m 0,0 km/h (0 Bft) 100,00 %
15.03.2020 08:30 6,9 C 7,2 C 6,7 C 87 % 1016,7 hPa 0,0 l/m 0 min 0 min 68 W/m 0,0 km/h (0 Bft) 100,00 %
15.03.2020 08:32 6,9 C 7,2 C 6,7 C 87 % 1016,6 hPa 0,0 l/m 0 min 0 min 63 W/m 19,3 km/h (3 Bft) 100,00 %
15.03.2020 08:34 7,0 C 7,2 C 6,7 C 87 % 1016,6 hPa 0,0 l/m 0 min 0 min 61 W/m 12,9 km/h (3 Bft) 100,00 %
15.03.2020 08:36 7,1 C 7,2 C 6,7 C 87 % 1016,6 hPa 0,0 l/m 0 min 0 min 60 W/m 3,2 km/h (1 Bft) 100,00 %
15.03.2020 08:38 7,1 C 7,2 C 6,7 C 87 % 1016,6 hPa 0,0 l/m 0 min 0 min 64 W/m 0,0 km/h (0 Bft) 97,14 %
15.03.2020 08:40 7,1 C 7,2 C 6,7 C 87 % 1016,6 hPa 0,0 l/m 0 min 0 min 70 W/m 0,0 km/h (0 Bft) 97,87 %
15.03.2020 08:42 7,1 C 7,2 C 6,7 C 87 % 1016,6 hPa 0,0 l/m 0 min 0 min 62 W/m 25,7 km/h (4 Bft) 97,87 %
15.03.2020 08:44 7,2 C 7,2 C 6,7 C 87 % 1016,6 hPa 0,0 l/m 0 min 0 min 56 W/m 3,2 km/h (1 Bft) 97,87 %
15.03.2020 08:46 7,2 C 7,2 C 6,7 C 86 % 1016,6 hPa 0,0 l/m 0 min 0 min 62 W/m 16,1 km/h (3 Bft) 97,83 %
15.03.2020 08:48 7,2 C 7,2 C 6,7 C 86 % 1016,6 hPa 0,0 l/m 0 min 0 min 67 W/m 0,0 km/h (0 Bft) 97,87 %
15.03.2020 08:50 7,3 C 7,2 C 6,7 C 86 % 1016,5 hPa 0,0 l/m 0 min 0 min 68 W/m 0,0 km/h (0 Bft) 95,74 %
15.03.2020 08:52 7,3 C 7,2 C 6,7 C 86 % 1016,5 hPa 0,0 l/m 0 min 0 min 66 W/m 0,0 km/h (0 Bft) 97,87 %
15.03.2020 08:54 7,3 C 7,2 C 6,7 C 86 % 1016,5 hPa 0,0 l/m 0 min 0 min 69 W/m 0,0 km/h (0 Bft) 97,87 %
15.03.2020 08:56 7,3 C 7,2 C 6,7 C 86 % 1016,4 hPa 0,0 l/m 0 min 0 min 70 W/m 0,0 km/h (0 Bft) 97,87 %
15.03.2020 08:58 7,4 C 7,8 C 6,7 C 86 % 1016,5 hPa 0,0 l/m 0 min 0 min 104 W/m 0,0 km/h (0 Bft) 97,83 %
15.03.2020 09:00 7,4 C 9,4 C 6,7 C 86 % 1016,5 hPa 0,0 l/m 2 min 0 min 173 W/m 0,0 km/h (0 Bft) 97,87 %
15.03.2020 09:02 7,4 C 10,0 C 6,7 C 86 % 1016,4 hPa 0,0 l/m 2 min 0 min 281 W/m 16,1 km/h (3 Bft) 98,00 %
15.03.2020 09:04 7,6 C 11,1 C 7,2 C 86 % 1016,4 hPa 0,0 l/m 2 min 0 min 304 W/m 0,0 km/h (0 Bft) 95,74 %
15.03.2020 09:06 7,6 C 11,7 C 7,2 C 86 % 1016,3 hPa 0,0 l/m 2 min 0 min 318 W/m 3,2 km/h (1 Bft) 95,74 %
15.03.2020 09:08 7,8 C 11,7 C 7,2 C 86 % 1016,3 hPa 0,0 l/m 2 min 0 min 307 W/m 19,3 km/h (3 Bft) 97,83 %
15.03.2020 09:10 7,9 C 12,2 C 7,8 C 85 % 1016,3 hPa 0,0 l/m 2 min 0 min 206 W/m 12,9 km/h (3 Bft) 97,87 %
15.03.2020 09:12 8,1 C 11,7 C 7,8 C 85 % 1016,3 hPa 0,0 l/m 2 min 0 min 324 W/m 19,3 km/h (3 Bft) 95,74 %
15.03.2020 09:14 8,2 C 11,7 C 7,8 C 85 % 1016,3 hPa 0,0 l/m 2 min 0 min 325 W/m 6,4 km/h (2 Bft) 95,74 %
15.03.2020 09:16 8,3 C 12,2 C 7,8 C 84 % 1016,4 hPa 0,0 l/m 2 min 0 min 347 W/m 0,0 km/h (0 Bft) 97,87 %
15.03.2020 09:18 8,6 C 12,2 C 8,9 C 84 % 1016,3 hPa 0,0 l/m 2 min 0 min 370 W/m 16,1 km/h (3 Bft) 93,62 %
15.03.2020 09:20 8,7 C 12,2 C 11,1 C 83 % 1016,4 hPa 0,0 l/m 2 min 0 min 370 W/m 25,7 km/h (4 Bft) 97,83 %
15.03.2020 09:22 8,9 C 12,2 C 11,7 C 83 % 1016,3 hPa 0,0 l/m 2 min 0 min 311 W/m 9,7 km/h (2 Bft) 95,74 %
15.03.2020 09:24 9,1 C 12,8 C 13,3 C 82 % 1016,2 hPa 0,0 l/m 2 min 0 min 388 W/m 12,9 km/h (3 Bft) 95,74 %
15.03.2020 09:26 9,2 C 13,3 C 13,9 C 82 % 1016,3 hPa 0,0 l/m 2 min 0 min 392 W/m 0,0 km/h (0 Bft) 95,74 %
15.03.2020 09:28 9,4 C 12,8 C 13,3 C 81 % 1016,3 hPa 0,0 l/m 2 min 0 min 362 W/m 0,0 km/h (0 Bft) 97,87 %
15.03.2020 09:30 9,5 C 12,8 C 13,3 C 81 % 1016,4 hPa 0,0 l/m 2 min 0 min 361 W/m 0,0 km/h (0 Bft) 95,74 %
15.03.2020 09:32 9,6 C 12,8 C 13,9 C 80 % 1016,4 hPa 0,0 l/m 2 min 0 min 362 W/m 3,2 km/h (1 Bft) 93,48 %
15.03.2020 09:34 9,8 C 13,3 C 13,9 C 80 % 1016,4 hPa 0,0 l/m 2 min 0 min 382 W/m 0,0 km/h (0 Bft) 95,74 %
15.03.2020 09:36 9,8 C 12,8 C 13,3 C 79 % 1016,3 hPa 0,0 l/m 2 min 0 min 354 W/m 3,2 km/h (1 Bft) 95,74 %
15.03.2020 09:38 9,9 C 12,8 C 13,3 C 79 % 1016,3 hPa 0,0 l/m 2 min 0 min 349 W/m 0,0 km/h (0 Bft) 91,49 %
15.03.2020 09:40 10,1 C 13,3 C 13,3 C 78 % 1016,3 hPa 0,0 l/m 2 min 0 min 305 W/m 0,0 km/h (0 Bft) 95,74 %
15.03.2020 09:42 10,2 C 12,8 C 13,9 C 78 % 1016,3 hPa 0,0 l/m 2 min 0 min 401 W/m 0,0 km/h (0 Bft) 93,62 %
15.03.2020 09:44 10,2 C 11,7 C 12,2 C 78 % 1016,2 hPa 0,0 l/m 2 min 0 min 368 W/m 16,1 km/h (3 Bft) 93,62 %
15.03.2020 09:46 10,3 C 11,1 C 11,1 C 77 % 1016,2 hPa 0,0 l/m 2 min 0 min 216 W/m 29,0 km/h (5 Bft) 95,74 %
15.03.2020 09:48 10,3 C 10,6 C 10,6 C 77 % 1016,2 hPa 0,0 l/m 2 min 0 min 218 W/m 0,0 km/h (0 Bft) 93,62 %
15.03.2020 09:50 10,3 C 10,6 C 10,0 C 77 % 1016,2 hPa 0,0 l/m 0 min 0 min 193 W/m 16,1 km/h (3 Bft) 95,65 %
15.03.2020 09:52 10,3 C 10,6 C 10,0 C 77 % 1016,2 hPa 0,0 l/m 0 min 0 min 199 W/m 6,4 km/h (2 Bft) 95,74 %
15.03.2020 09:54 10,3 C 10,6 C 10,0 C 77 % 1016,2 hPa 0,0 l/m 2 min 0 min 229 W/m 3,2 km/h (1 Bft) 95,74 %
15.03.2020 09:56 10,3 C 11,7 C 10,0 C 78 % 1016,3 hPa 0,0 l/m 2 min 0 min 282 W/m 0,0 km/h (0 Bft) 95,74 %
15.03.2020 09:58 10,4 C 12,2 C 10,6 C 78 % 1016,2 hPa 0,0 l/m 2 min 0 min 354 W/m 0,0 km/h (0 Bft) 95,74 %
15.03.2020 10:00 10,4 C 11,7 C 10,6 C 78 % 1016,1 hPa 0,0 l/m 2 min 0 min 260 W/m 3,2 km/h (1 Bft) 95,65 %
15.03.2020 10:02 10,4 C 11,7 C 10,6 C 78 % 1016,1 hPa 0,0 l/m 2 min 0 min 267 W/m 19,3 km/h (3 Bft) 95,74 %
15.03.2020 10:04 10,4 C 12,2 C 10,6 C 78 % 1016,0 hPa 0,0 l/m 2 min 0 min 263 W/m 0,0 km/h (0 Bft) 97,87 %
15.03.2020 10:06 10,5 C 13,9 C 11,1 C 79 % 1016,0 hPa 0,0 l/m 2 min 0 min 267 W/m 0,0 km/h (0 Bft) 95,74 %
15.03.2020 10:08 10,6 C 13,9 C 11,1 C 79 % 1016,0 hPa 0,0 l/m 2 min 0 min 383 W/m 0,0 km/h (0 Bft) 93,62 %
15.03.2020 10:10 10,7 C 13,9 C 11,7 C 79 % 1015,8 hPa 0,0 l/m 2 min 0 min 363 W/m 0,0 km/h (0 Bft) 93,62 %
15.03.2020 10:12 10,7 C 13,3 C 11,7 C 79 % 1015,9 hPa 0,0 l/m 2 min 0 min 349 W/m 0,0 km/h (0 Bft) 97,83 %
15.03.2020 10:14 10,8 C 12,8 C 11,7 C 78 % 1015,8 hPa 0,0 l/m 2 min 0 min 335 W/m 29,0 km/h (5 Bft) 97,87 %
15.03.2020 10:16 10,9 C 13,3 C 11,7 C 78 % 1015,8 hPa 0,0 l/m 2 min 0 min 332 W/m 3,2 km/h (1 Bft) 95,74 %
15.03.2020 10:18 11,0 C 13,3 C 11,7 C 78 % 1015,7 hPa 0,0 l/m 2 min 0 min 298 W/m 3,2 km/h (1 Bft) 97,87 %
15.03.2020 10:20 11,1 C 13,3 C 11,7 C 78 % 1015,7 hPa 0,0 l/m 2 min 0 min 299 W/m 3,2 km/h (1 Bft) 97,87 %
15.03.2020 10:22 11,2 C 12,8 C 11,7 C 78 % 1015,7 hPa 0,0 l/m 2 min 0 min 323 W/m 12,9 km/h (3 Bft) 97,87 %
15.03.2020 10:24 11,3 C 12,8 C 11,7 C 78 % 1015,7 hPa 0,0 l/m 2 min 0 min 369 W/m 0,0 km/h (0 Bft) 97,83 %
15.03.2020 10:26 11,3 C 13,3 C 12,2 C 78 % 1015,7 hPa 0,0 l/m 2 min 0 min 343 W/m 3,2 km/h (1 Bft) 97,87 %
15.03.2020 10:28 11,4 C 15,0 C 12,2 C 78 % 1015,7 hPa 0,0 l/m 2 min 0 min 558 W/m 22,5 km/h (4 Bft) 97,87 %
15.03.2020 10:30 11,6 C 15,6 C 12,2 C 77 % 1015,6 hPa 0,0 l/m 2 min 0 min 694 W/m 38,6 km/h (5 Bft) 97,87 %
15.03.2020 10:32 11,7 C 15,6 C 12,8 C 77 % 1015,6 hPa 0,0 l/m 2 min 0 min 623 W/m 29,0 km/h (5 Bft) 97,87 %
15.03.2020 10:34 11,9 C 16,1 C 12,8 C 77 % 1015,5 hPa 0,0 l/m 2 min 0 min 586 W/m 22,5 km/h (4 Bft) 97,87 %
15.03.2020 10:36 12,1 C 15,6 C 12,8 C 76 % 1015,5 hPa 0,0 l/m 2 min 0 min 527 W/m 3,2 km/h (1 Bft) 97,83 %
15.03.2020 10:38 12,2 C 15,6 C 12,8 C 76 % 1015,5 hPa 0,0 l/m 2 min 0 min 526 W/m 16,1 km/h (3 Bft) 97,87 %
15.03.2020 10:40 12,3 C 15,6 C 12,8 C 75 % 1015,5 hPa 0,0 l/m 2 min 0 min 544 W/m 32,2 km/h (5 Bft) 95,74 %
15.03.2020 10:42 12,4 C 15,6 C 13,3 C 75 % 1015,5 hPa 0,0 l/m 2 min 0 min 563 W/m 3,2 km/h (1 Bft) 97,87 %
15.03.2020 10:44 12,6 C 15,6 C 13,3 C 75 % 1015,5 hPa 0,0 l/m 2 min 0 min 482 W/m 0,0 km/h (0 Bft) 97,87 %
15.03.2020 10:46 12,6 C 14,4 C 12,8 C 74 % 1015,5 hPa 0,0 l/m 2 min 0 min 360 W/m 51,5 km/h (7 Bft) 97,87 %
15.03.2020 10:48 12,7 C 14,4 C 12,8 C 74 % 1015,4 hPa 0,0 l/m 2 min 0 min 432 W/m 3,2 km/h (1 Bft) 95,65 %
15.03.2020 10:50 12,7 C 14,4 C 12,8 C 73 % 1015,4 hPa 0,0 l/m 2 min 0 min 449 W/m 19,3 km/h (3 Bft) 97,87 %
15.03.2020 10:52 12,8 C 14,4 C 12,8 C 73 % 1015,4 hPa 0,0 l/m 2 min 0 min 395 W/m 29,0 km/h (5 Bft) 97,87 %
15.03.2020 10:54 12,8 C 14,4 C 12,8 C 73 % 1015,4 hPa 0,0 l/m 2 min 0 min 425 W/m 22,5 km/h (4 Bft) 97,87 %
15.03.2020 10:56 12,8 C 15,0 C 12,8 C 73 % 1015,3 hPa 0,0 l/m 2 min 0 min 386 W/m 19,3 km/h (3 Bft) 97,87 %
15.03.2020 10:58 12,9 C 14,4 C 12,8 C 73 % 1015,2 hPa 0,0 l/m 2 min 0 min 388 W/m 45,1 km/h (6 Bft) 95,74 %
15.03.2020 11:00 12,9 C 14,4 C 12,8 C 73 % 1015,2 hPa 0,0 l/m 2 min 0 min 417 W/m 3,2 km/h (1 Bft) 95,65 %
15.03.2020 11:02 12,9 C 16,1 C 12,8 C 73 % 1015,3 hPa 0,0 l/m 2 min 0 min 482 W/m 0,0 km/h (0 Bft) 93,62 %
15.03.2020 11:04 13,0 C 16,1 C 13,3 C 73 % 1015,2 hPa 0,0 l/m 2 min 0 min 555 W/m 12,9 km/h (3 Bft) 97,87 %
15.03.2020 11:06 13,1 C 15,0 C 12,8 C 73 % 1015,2 hPa 0,0 l/m 2 min 0 min 606 W/m 0,0 km/h (0 Bft) 95,74 %
15.03.2020 11:08 13,1 C 14,4 C 12,8 C 73 % 1015,2 hPa 0,0 l/m 0 min 0 min 270 W/m 25,7 km/h (4 Bft) 95,74 %
15.03.2020 11:10 13,1 C 15,0 C 12,8 C 72 % 1015,1 hPa 0,0 l/m 2 min 0 min 434 W/m 25,7 km/h (4 Bft) 97,83 %
15.03.2020 11:12 13,1 C 16,1 C 12,8 C 72 % 1015,1 hPa 0,0 l/m 2 min 0 min 461 W/m 3,2 km/h (1 Bft) 97,87 %
15.03.2020 11:14 13,2 C 16,7 C 13,3 C 72 % 1015,1 hPa 0,0 l/m 2 min 0 min 661 W/m 3,2 km/h (1 Bft) 95,74 %
15.03.2020 11:16 13,3 C 16,1 C 12,8 C 72 % 1015,1 hPa 0,0 l/m 2 min 0 min 670 W/m 16,1 km/h (3 Bft) 97,87 %
15.03.2020 11:18 13,3 C 15,6 C 12,8 C 72 % 1015,1 hPa 0,0 l/m 2 min 0 min 388 W/m 25,7 km/h (4 Bft) 97,87 %
15.03.2020 11:20 13,3 C 16,1 C 12,8 C 72 % 1015,1 hPa 0,0 l/m 2 min 0 min 504 W/m 16,1 km/h (3 Bft) 97,87 %
15.03.2020 11:22 13,4 C 15,6 C 12,8 C 72 % 1015,1 hPa 0,0 l/m 2 min 0 min 632 W/m 41,8 km/h (6 Bft) 97,83 %
15.03.2020 11:24 13,4 C 16,1 C 12,8 C 71 % 1015,0 hPa 0,0 l/m 2 min 0 min 630 W/m 16,1 km/h (3 Bft) 91,49 %
15.03.2020 11:26 13,4 C 16,7 C 12,8 C 71 % 1015,0 hPa 0,0 l/m 2 min 0 min 689 W/m 41,8 km/h (6 Bft) 97,87 %
15.03.2020 11:28 13,4 C 16,7 C 12,8 C 71 % 1015,0 hPa 0,0 l/m 2 min 0 min 695 W/m 32,2 km/h (5 Bft) 97,87 %
15.03.2020 11:30 13,5 C 17,2 C 12,8 C 71 % 1015,0 hPa 0,0 l/m 2 min 0 min 704 W/m 35,4 km/h (5 Bft) 97,87 %
15.03.2020 11:32 13,6 C 17,2 C 12,8 C 71 % 1015,0 hPa 0,0 l/m 2 min 0 min 707 W/m 25,7 km/h (4 Bft) 97,87 %
15.03.2020 11:34 13,6 C 17,8 C 13,3 C 71 % 1015,0 hPa 0,0 l/m 2 min 0 min 700 W/m 3,2 km/h (1 Bft) 97,83 %
15.03.2020 11:36 13,7 C 17,2 C 13,3 C 71 % 1015,0 hPa 0,0 l/m 2 min 0 min 680 W/m 6,4 km/h (2 Bft) 97,87 %
15.03.2020 11:38 13,8 C 16,7 C 13,9 C 71 % 1015,0 hPa 0,0 l/m 2 min 0 min 583 W/m 0,0 km/h (0 Bft) 97,87 %
15.03.2020 11:40 13,9 C 15,6 C 13,9 C 71 % 1014,9 hPa 0,0 l/m 2 min 0 min 413 W/m 22,5 km/h (4 Bft) 100,00 %
15.03.2020 11:42 13,9 C 14,4 C 13,9 C 70 % 1014,9 hPa 0,0 l/m 2 min 0 min 297 W/m 29,0 km/h (5 Bft) 100,00 %
15.03.2020 11:44 13,9 C 13,3 C 13,3 C 70 % 1015,0 hPa 0,0 l/m 0 min 0 min 228 W/m 25,7 km/h (4 Bft) 100,00 %
15.03.2020 11:46 13,9 C 13,3 C 12,8 C 70 % 1014,9 hPa 0,0 l/m 0 min 0 min 217 W/m 16,1 km/h (3 Bft) 97,83 %
15.03.2020 11:48 13,8 C 13,3 C 12,8 C 71 % 1014,9 hPa 0,0 l/m 0 min 0 min 214 W/m 25,7 km/h (4 Bft) 100,00 %
15.03.2020 11:50 13,8 C 13,3 C 12,8 C 71 % 1014,8 hPa 0,0 l/m 0 min 0 min 173 W/m 25,7 km/h (4 Bft) 97,87 %
15.03.2020 11:52 13,7 C 12,8 C 12,8 C 71 % 1014,9 hPa 0,0 l/m 0 min 0 min 142 W/m 3,2 km/h (1 Bft) 100,00 %
15.03.2020 11:54 13,7 C 13,3 C 12,8 C 72 % 1014,8 hPa 0,0 l/m 0 min 0 min 147 W/m 3,2 km/h (1 Bft) 100,00 %
15.03.2020 11:56 13,6 C 13,3 C 12,8 C 72 % 1014,7 hPa 0,0 l/m 0 min 0 min 165 W/m 12,9 km/h (3 Bft) 100,00 %
15.03.2020 11:58 13,6 C 13,3 C 12,8 C 72 % 1014,7 hPa 0,0 l/m 0 min 0 min 204 W/m 35,4 km/h (5 Bft) 100,00 %
15.03.2020 12:00 13,5 C 13,3 C 12,8 C 72 % 1014,7 hPa 0,0 l/m 0 min 0 min 228 W/m 32,2 km/h (5 Bft) 100,00 %
15.03.2020 12:02 13,5 C 14,4 C 13,3 C 72 % 1014,7 hPa 0,0 l/m 0 min 0 min 260 W/m 16,1 km/h (3 Bft) 97,87 %
15.03.2020 12:04 13,5 C 14,4 C 13,3 C 72 % 1014,6 hPa 0,0 l/m 2 min 0 min 352 W/m 25,7 km/h (4 Bft) 97,83 %
15.03.2020 12:08 13,6 C 14,4 C 13,3 C 72 % 1014,5 hPa 0,0 l/m 0 min 0 min 283 W/m 22,5 km/h (4 Bft) 97,85 %
15.03.2020 12:10 13,6 C 15,0 C 13,9 C 73 % 1014,5 hPa 0,0 l/m 2 min 0 min 312 W/m 0,0 km/h (0 Bft) 97,87 %
15.03.2020 12:12 13,6 C 14,4 C 13,9 C 73 % 1014,5 hPa 0,0 l/m 2 min 0 min 296 W/m 22,5 km/h (4 Bft) 95,74 %
15.03.2020 12:14 13,7 C 14,4 C 13,9 C 72 % 1014,5 hPa 0,0 l/m 0 min 0 min 281 W/m 22,5 km/h (4 Bft) 97,87 %
15.03.2020 12:16 13,7 C 14,4 C 13,9 C 72 % 1014,5 hPa 0,0 l/m 0 min 0 min 247 W/m 25,7 km/h (4 Bft) 95,74 %
15.03.2020 12:18 13,7 C 13,9 C 13,3 C 71 % 1014,4 hPa 0,0 l/m 0 min 0 min 224 W/m 22,5 km/h (4 Bft) 97,87 %
15.03.2020 12:20 13,8 C 14,4 C 13,3 C 71 % 1014,5 hPa 0,0 l/m 0 min 0 min 232 W/m 22,5 km/h (4 Bft) 97,87 %
15.03.2020 12:22 13,8 C 14,4 C 13,3 C 70 % 1014,4 hPa 0,0 l/m 0 min 0 min 253 W/m 22,5 km/h (4 Bft) 97,83 %
15.03.2020 12:24 13,8 C 14,4 C 13,3 C 70 % 1014,4 hPa 0,0 l/m 0 min 0 min 283 W/m 19,3 km/h (3 Bft) 95,74 %
15.03.2020 12:26 13,8 C 15,0 C 13,3 C 70 % 1014,4 hPa 0,0 l/m 2 min 0 min 316 W/m 29,0 km/h (5 Bft) 97,87 %
15.03.2020 12:28 13,8 C 15,0 C 13,9 C 69 % 1014,4 hPa 0,0 l/m 2 min 0 min 330 W/m 25,7 km/h (4 Bft) 97,87 %
15.03.2020 12:30 13,8 C 14,4 C 13,3 C 69 % 1014,4 hPa 0,0 l/m 0 min 0 min 294 W/m 6,4 km/h (2 Bft) 97,87 %
15.03.2020 12:32 13,8 C 15,6 C 13,9 C 69 % 1014,3 hPa 0,0 l/m 2 min 0 min 411 W/m 19,3 km/h (3 Bft) 97,83 %
15.03.2020 12:34 13,9 C 16,1 C 13,9 C 68 % 1014,4 hPa 0,0 l/m 2 min 0 min 541 W/m 29,0 km/h (5 Bft) 93,62 %
15.03.2020 12:36 13,9 C 16,1 C 13,9 C 68 % 1014,4 hPa 0,0 l/m 2 min 0 min 461 W/m 29,0 km/h (5 Bft) 95,74 %
15.03.2020 12:38 14,0 C 17,2 C 14,4 C 69 % 1014,2 hPa 0,0 l/m 2 min 0 min 438 W/m 19,3 km/h (3 Bft) 97,87 %
15.03.2020 12:40 14,1 C 17,8 C 15,6 C 69 % 1014,3 hPa 0,0 l/m 2 min 0 min 438 W/m 25,7 km/h (4 Bft) 97,87 %
15.03.2020 12:42 14,3 C 17,2 C 16,1 C 68 % 1014,2 hPa 0,0 l/m 2 min 0 min 702 W/m 32,2 km/h (5 Bft) 97,87 %
15.03.2020 12:44 14,3 C 16,1 C 15,6 C 68 % 1014,2 hPa 0,0 l/m 2 min 0 min 647 W/m 22,5 km/h (4 Bft) 97,83 %
15.03.2020 12:46 14,3 C 16,7 C 16,1 C 67 % 1014,2 hPa 0,0 l/m 2 min 0 min 565 W/m 32,2 km/h (5 Bft) 97,87 %
15.03.2020 12:48 14,4 C 16,7 C 16,1 C 67 % 1014,2 hPa 0,0 l/m 2 min 0 min 438 W/m 22,5 km/h (4 Bft) 97,87 %
15.03.2020 12:50 14,5 C 15,6 C 15,0 C 66 % 1014,1 hPa 0,0 l/m 2 min 0 min 395 W/m 25,7 km/h (4 Bft) 97,87 %
15.03.2020 12:52 14,4 C 14,4 C 14,4 C 66 % 1014,2 hPa 0,0 l/m 2 min 0 min 304 W/m 29,0 km/h (5 Bft) 97,87 %
15.03.2020 12:54 14,4 C 14,4 C 13,9 C 66 % 1014,1 hPa 0,0 l/m 0 min 0 min 285 W/m 32,2 km/h (5 Bft) 100,00 %
15.03.2020 12:56 14,4 C 15,0 C 15,0 C 66 % 1014,0 hPa 0,0 l/m 0 min 0 min 265 W/m 38,6 km/h (5 Bft) 100,00 %
15.03.2020 12:58 14,3 C 15,0 C 14,4 C 66 % 1014,0 hPa 0,0 l/m 2 min 0 min 309 W/m 38,6 km/h (5 Bft) 100,00 %
15.03.2020 13:00 14,3 C 14,4 C 14,4 C 66 % 1014,0 hPa 0,0 l/m 0 min 0 min 294 W/m 38,6 km/h (5 Bft) 100,00 %
15.03.2020 13:02 14,3 C 14,4 C 13,9 C 66 % 1013,9 hPa 0,0 l/m 0 min 0 min 277 W/m 0,0 km/h (0 Bft) 100,00 %
15.03.2020 13:04 14,3 C 14,4 C 14,4 C 66 % 1013,8 hPa 0,0 l/m 0 min 0 min 294 W/m 41,8 km/h (6 Bft) 100,00 %
15.03.2020 13:06 14,3 C 14,4 C 13,9 C 66 % 1013,9 hPa 0,0 l/m 0 min 0 min 292 W/m 29,0 km/h (5 Bft) 100,00 %
15.03.2020 13:08 14,3 C 15,0 C 15,0 C 67 % 1013,8 hPa 0,0 l/m 2 min 0 min 306 W/m 25,7 km/h (4 Bft) 100,00 %
15.03.2020 13:10 14,3 C 14,4 C 14,4 C 67 % 1013,9 hPa 0,0 l/m 0 min 0 min 248 W/m 16,1 km/h (3 Bft) 100,00 %
15.03.2020 13:12 14,3 C 14,4 C 13,9 C 67 % 1013,8 hPa 0,0 l/m 0 min 0 min 207 W/m 22,5 km/h (4 Bft) 97,87 %
15.03.2020 13:14 14,3 C 14,4 C 13,9 C 67 % 1013,8 hPa 0,0 l/m 0 min 0 min 214 W/m 35,4 km/h (5 Bft) 100,00 %
15.03.2020 13:16 14,3 C 15,0 C 14,4 C 67 % 1013,7 hPa 0,0 l/m 0 min 0 min 277 W/m 16,1 km/h (3 Bft) 97,87 %
15.03.2020 13:18 14,3 C 14,4 C 14,4 C 67 % 1013,7 hPa 0,0 l/m 0 min 0 min 283 W/m 35,4 km/h (5 Bft) 100,00 %
15.03.2020 13:20 14,3 C 14,4 C 13,9 C 67 % 1013,8 hPa 0,0 l/m 0 min 0 min 248 W/m 41,8 km/h (6 Bft) 100,00 %
15.03.2020 13:22 14,2 C 13,9 C 13,9 C 67 % 1013,7 hPa 0,0 l/m 0 min 0 min 214 W/m 35,4 km/h (5 Bft) 100,00 %
15.03.2020 13:24 14,2 C 13,9 C 13,3 C 66 % 1013,8 hPa 0,0 l/m 0 min 0 min 193 W/m 25,7 km/h (4 Bft) 100,00 %
15.03.2020 13:26 14,1 C 13,9 C 13,3 C 66 % 1013,7 hPa 0,0 l/m 0 min 0 min 195 W/m 25,7 km/h (4 Bft) 95,74 %
15.03.2020 13:28 14,1 C 13,9 C 13,3 C 66 % 1013,6 hPa 0,0 l/m 0 min 0 min 183 W/m 35,4 km/h (5 Bft) 97,87 %
15.03.2020 13:30 14,0 C 13,3 C 12,8 C 66 % 1013,7 hPa 0,0 l/m 0 min 0 min 178 W/m 35,4 km/h (5 Bft) 97,83 %
15.03.2020 13:32 13,9 C 13,3 C 12,8 C 66 % 1013,6 hPa 0,0 l/m 0 min 0 min 171 W/m 25,7 km/h (4 Bft) 97,87 %
15.03.2020 13:34 13,9 C 13,3 C 12,8 C 67 % 1013,6 hPa 0,0 l/m 0 min 0 min 155 W/m 12,9 km/h (3 Bft) 97,87 %
15.03.2020 13:36 13,8 C 13,9 C 13,3 C 67 % 1013,7 hPa 0,0 l/m 0 min 0 min 189 W/m 25,7 km/h (4 Bft) 97,87 %
15.03.2020 13:38 13,8 C 13,9 C 13,3 C 67 % 1013,6 hPa 0,0 l/m 0 min 0 min 216 W/m 25,7 km/h (4 Bft) 97,87 %
15.03.2020 13:40 13,8 C 13,9 C 13,3 C 68 % 1013,6 hPa 0,0 l/m 0 min 0 min 222 W/m 3,2 km/h (1 Bft) 97,87 %
15.03.2020 13:42 13,8 C 13,9 C 13,3 C 68 % 1013,5 hPa 0,0 l/m 0 min 0 min 196 W/m 0,0 km/h (0 Bft) 95,65 %
15.03.2020 13:44 13,8 C 13,9 C 13,3 C 68 % 1013,4 hPa 0,0 l/m 0 min 0 min 197 W/m 25,7 km/h (4 Bft) 91,49 %
15.03.2020 13:46 13,8 C 13,9 C 13,3 C 68 % 1013,5 hPa 0,0 l/m 0 min 0 min 215 W/m 19,3 km/h (3 Bft) 97,87 %
15.03.2020 13:48 13,8 C 13,9 C 13,9 C 68 % 1013,5 hPa 0,0 l/m 0 min 0 min 225 W/m 22,5 km/h (4 Bft) 97,87 %
15.03.2020 13:50 13,9 C 13,9 C 13,3 C 67 % 1013,5 hPa 0,0 l/m 0 min 0 min 216 W/m 38,6 km/h (5 Bft) 95,74 %
15.03.2020 13:52 13,8 C 13,9 C 13,3 C 67 % 1013,4 hPa 0,0 l/m 0 min 0 min 204 W/m 35,4 km/h (5 Bft) 95,74 %
15.03.2020 13:54 13,8 C 13,9 C 13,3 C 67 % 1013,4 hPa 0,0 l/m 0 min 0 min 235 W/m 29,0 km/h (5 Bft) 97,83 %
15.03.2020 13:56 13,8 C 13,9 C 13,3 C 67 % 1013,3 hPa 0,0 l/m 2 min 0 min 290 W/m 38,6 km/h (5 Bft) 97,87 %
15.03.2020 13:58 13,8 C 14,4 C 13,9 C 67 % 1013,3 hPa 0,0 l/m 2 min 0 min 365 W/m 35,4 km/h (5 Bft) 97,87 %
15.03.2020 14:00 13,8 C 14,4 C 13,9 C 66 % 1013,2 hPa 0,0 l/m 2 min 0 min 343 W/m 25,7 km/h (4 Bft) 93,62 %
15.03.2020 14:02 13,9 C 15,0 C 13,9 C 67 % 1013,2 hPa 0,0 l/m 2 min 0 min 282 W/m 16,1 km/h (3 Bft) 95,74 %
15.03.2020 14:04 13,9 C 14,4 C 13,9 C 67 % 1013,2 hPa 0,0 l/m 0 min 0 min 269 W/m 0,0 km/h (0 Bft) 95,74 %
15.03.2020 14:06 14,0 C 14,4 C 13,9 C 67 % 1013,2 hPa 0,0 l/m 2 min 0 min 300 W/m 45,1 km/h (6 Bft) 95,65 %
15.03.2020 14:08 14,1 C 15,6 C 14,4 C 67 % 1013,1 hPa 0,0 l/m 2 min 0 min 352 W/m 0,0 km/h (0 Bft) 95,74 %
15.03.2020 14:10 14,1 C 16,1 C 14,4 C 67 % 1013,2 hPa 0,0 l/m 2 min 0 min 373 W/m 32,2 km/h (5 Bft) 95,74 %
15.03.2020 14:12 14,2 C 16,7 C 14,4 C 67 % 1013,1 hPa 0,0 l/m 2 min 0 min 463 W/m 22,5 km/h (4 Bft) 97,87 %
15.03.2020 14:14 14,3 C 16,7 C 14,4 C 67 % 1013,1 hPa 0,0 l/m 2 min 0 min 602 W/m 25,7 km/h (4 Bft) 97,87 %
15.03.2020 14:16 14,3 C 16,7 C 14,4 C 66 % 1013,1 hPa 0,0 l/m 2 min 0 min 575 W/m 22,5 km/h (4 Bft) 97,87 %
15.03.2020 14:18 14,3 C 16,1 C 14,4 C 67 % 1013,1 hPa 0,0 l/m 2 min 0 min 460 W/m 0,0 km/h (0 Bft) 95,65 %
15.03.2020 14:20 14,4 C 15,6 C 14,4 C 67 % 1013,1 hPa 0,0 l/m 2 min 0 min 302 W/m 35,4 km/h (5 Bft) 97,87 %
15.03.2020 14:22 14,4 C 15,0 C 14,4 C 66 % 1013,2 hPa 0,0 l/m 2 min 0 min 286 W/m 25,7 km/h (4 Bft) 97,87 %
15.03.2020 14:24 14,5 C 15,0 C 14,4 C 66 % 1013,1 hPa 0,0 l/m 2 min 0 min 281 W/m 22,5 km/h (4 Bft) 97,87 %
15.03.2020 14:26 14,5 C 15,0 C 14,4 C 66 % 1013,1 hPa 0,0 l/m 2 min 0 min 286 W/m 3,2 km/h (1 Bft) 97,87 %
15.03.2020 14:28 14,5 C 15,0 C 14,4 C 66 % 1013,1 hPa 0,0 l/m 0 min 0 min 258 W/m 9,7 km/h (2 Bft) 93,48 %
15.03.2020 14:30 14,5 C 14,4 C 14,4 C 66 % 1013,1 hPa 0,0 l/m 2 min 0 min 270 W/m 38,6 km/h (5 Bft) 97,87 %
15.03.2020 14:32 14,5 C 15,0 C 14,4 C 66 % 1013,0 hPa 0,0 l/m 2 min 0 min 300 W/m 29,0 km/h (5 Bft) 97,87 %
15.03.2020 14:34 14,5 C 14,4 C 13,9 C 65 % 1013,0 hPa 0,0 l/m 2 min 0 min 274 W/m 32,2 km/h (5 Bft) 97,87 %
15.03.2020 14:36 14,4 C 14,4 C 13,9 C 65 % 1013,0 hPa 0,0 l/m 2 min 0 min 335 W/m 32,2 km/h (5 Bft) 95,74 %
15.03.2020 14:38 14,4 C 14,4 C 13,9 C 65 % 1012,9 hPa 0,0 l/m 2 min 0 min 289 W/m 0,0 km/h (0 Bft) 97,87 %
15.03.2020 14:40 14,4 C 14,4 C 13,9 C 65 % 1012,9 hPa 0,0 l/m 2 min 0 min 268 W/m 19,3 km/h (3 Bft) 97,83 %
15.03.2020 14:42 14,4 C 14,4 C 13,9 C 65 % 1012,9 hPa 0,0 l/m 0 min 0 min 253 W/m 29,0 km/h (5 Bft) 97,87 %
15.03.2020 14:44 14,3 C 14,4 C 13,9 C 65 % 1012,9 hPa 0,0 l/m 2 min 0 min 257 W/m 25,7 km/h (4 Bft) 97,87 %
15.03.2020 14:46 14,3 C 15,0 C 13,9 C 66 % 1012,9 hPa 0,0 l/m 2 min 0 min 270 W/m 25,7 km/h (4 Bft) 97,87 %
15.03.2020 14:48 14,3 C 15,0 C 13,9 C 65 % 1012,9 hPa 0,0 l/m 2 min 0 min 259 W/m 32,2 km/h (5 Bft) 95,74 %
15.03.2020 14:50 14,4 C 15,0 C 13,9 C 65 % 1012,8 hPa 0,0 l/m 2 min 0 min 257 W/m 41,8 km/h (6 Bft) 97,87 %
15.03.2020 14:52 14,4 C 15,0 C 14,4 C 65 % 1012,8 hPa 0,0 l/m 2 min 0 min 254 W/m 12,9 km/h (3 Bft) 100,00 %
15.03.2020 14:54 14,4 C 14,4 C 14,4 C 65 % 1012,9 hPa 0,0 l/m 2 min 0 min 250 W/m 29,0 km/h (5 Bft) 97,87 %
15.03.2020 14:56 14,4 C 14,4 C 13,9 C 65 % 1012,8 hPa 0,0 l/m 2 min 0 min 322 W/m 38,6 km/h (5 Bft) 95,74 %
15.03.2020 14:58 14,4 C 14,4 C 13,9 C 65 % 1012,9 hPa 0,0 l/m 0 min 0 min 232 W/m 35,4 km/h (5 Bft) 95,74 %
15.03.2020 15:00 14,4 C 14,4 C 13,9 C 66 % 1012,9 hPa 0,0 l/m 2 min 0 min 244 W/m 19,3 km/h (3 Bft) 100,00 %
15.03.2020 15:02 14,4 C 15,0 C 13,9 C 66 % 1012,8 hPa 0,0 l/m 2 min 0 min 275 W/m 29,0 km/h (5 Bft) 100,00 %
15.03.2020 15:04 14,4 C 16,7 C 14,4 C 66 % 1012,8 hPa 0,0 l/m 2 min 0 min 332 W/m 32,2 km/h (5 Bft) 95,65 %
15.03.2020 15:06 14,5 C 16,1 C 14,4 C 66 % 1012,8 hPa 0,0 l/m 2 min 0 min 296 W/m 22,5 km/h (4 Bft) 95,74 %
15.03.2020 15:08 14,6 C 16,1 C 14,4 C 66 % 1012,8 hPa 0,0 l/m 2 min 0 min 257 W/m 25,7 km/h (4 Bft) 97,87 %
15.03.2020 15:10 14,6 C 15,6 C 14,4 C 66 % 1012,8 hPa 0,0 l/m 2 min 0 min 249 W/m 22,5 km/h (4 Bft) 97,87 %
15.03.2020 15:12 14,7 C 15,0 C 14,4 C 65 % 1012,7 hPa 0,0 l/m 0 min 0 min 229 W/m 22,5 km/h (4 Bft) 97,87 %
15.03.2020 15:14 14,7 C 15,0 C 14,4 C 65 % 1012,7 hPa 0,0 l/m 2 min 0 min 235 W/m 0,0 km/h (0 Bft) 97,87 %
15.03.2020 15:16 14,7 C 15,6 C 14,4 C 65 % 1012,7 hPa 0,0 l/m 2 min 0 min 291 W/m 0,0 km/h (0 Bft) 97,83 %
15.03.2020 15:18 14,7 C 15,0 C 14,4 C 66 % 1012,7 hPa 0,0 l/m 2 min 0 min 238 W/m 19,3 km/h (3 Bft) 97,87 %
15.03.2020 15:20 14,8 C 15,0 C 14,4 C 66 % 1012,8 hPa 0,0 l/m 0 min 0 min 214 W/m 9,7 km/h (2 Bft) 97,87 %
15.03.2020 15:22 14,7 C 15,0 C 14,4 C 65 % 1012,7 hPa 0,0 l/m 2 min 0 min 234 W/m 22,5 km/h (4 Bft) 97,87 %
15.03.2020 15:24 14,7 C 15,6 C 14,4 C 64 % 1012,8 hPa 0,0 l/m 2 min 0 min 308 W/m 25,7 km/h (4 Bft) 97,87 %
15.03.2020 15:26 14,8 C 16,1 C 14,4 C 64 % 1012,8 hPa 0,0 l/m 2 min 0 min 396 W/m 25,7 km/h (4 Bft) 97,87 %
15.03.2020 15:28 14,8 C 16,7 C 15,0 C 65 % 1012,8 hPa 0,0 l/m 2 min 0 min 452 W/m 12,9 km/h (3 Bft) 97,83 %
15.03.2020 15:30 14,8 C 16,1 C 15,0 C 65 % 1012,8 hPa 0,0 l/m 2 min 0 min 462 W/m 0,0 km/h (0 Bft) 97,87 %
15.03.2020 15:32 14,9 C 15,6 C 15,0 C 65 % 1012,8 hPa 0,0 l/m 2 min 0 min 238 W/m 25,7 km/h (4 Bft) 97,87 %
15.03.2020 15:34 14,9 C 15,6 C 14,4 C 65 % 1012,7 hPa 0,0 l/m 2 min 0 min 228 W/m 22,5 km/h (4 Bft) 97,87 %
15.03.2020 15:36 14,9 C 15,0 C 14,4 C 64 % 1012,7 hPa 0,0 l/m 0 min 0 min 207 W/m 25,7 km/h (4 Bft) 97,87 %
15.03.2020 15:38 14,9 C 14,4 C 14,4 C 64 % 1012,7 hPa 0,0 l/m 0 min 0 min 176 W/m 16,1 km/h (3 Bft) 97,83 %
15.03.2020 15:40 14,9 C 14,4 C 14,4 C 64 % 1012,8 hPa 0,0 l/m 0 min 0 min 178 W/m 16,1 km/h (3 Bft) 97,87 %
15.03.2020 15:45 14,9 C 15,6 C 14,4 C 65 % 1012,6 hPa 0,0 l/m 5 min 0 min 209 W/m 19,3 km/h (3 Bft) 95,65 %
15.03.2020 15:46 14,9 C 15,6 C 14,4 C 65 % 1012,6 hPa 0,0 l/m 1 min 0 min 228 W/m 12,9 km/h (3 Bft) 100,00 %
15.03.2020 15:48 14,9 C 15,0 C 14,4 C 65 % 1012,6 hPa 0,0 l/m 2 min 0 min 212 W/m 12,9 km/h (3 Bft) 97,87 %
15.03.2020 15:50 14,9 C 16,1 C 15,0 C 66 % 1012,6 hPa 0,0 l/m 2 min 0 min 237 W/m 0,0 km/h (0 Bft) 97,83 %
15.03.2020 15:52 14,9 C 16,1 C 15,0 C 66 % 1012,5 hPa 0,0 l/m 2 min 0 min 377 W/m 0,0 km/h (0 Bft) 95,83 %
15.03.2020 15:54 15,0 C 16,1 C 15,0 C 66 % 1012,5 hPa 0,0 l/m 2 min 0 min 196 W/m 0,0 km/h (0 Bft) 100,00 %
15.03.2020 15:56 15,0 C 16,7 C 15,6 C 66 % 1012,4 hPa 0,0 l/m 2 min 0 min 356 W/m 6,4 km/h (2 Bft) 100,00 %
15.03.2020 15:58 15,1 C 16,1 C 15,6 C 66 % 1012,4 hPa 0,0 l/m 2 min 0 min 365 W/m 19,3 km/h (3 Bft) 97,92 %
15.03.2020 16:00 15,1 C 15,0 C 15,0 C 66 % 1012,4 hPa 0,0 l/m 0 min 0 min 181 W/m 16,1 km/h (3 Bft) 95,74 %
15.03.2020 16:02 15,1 C 15,0 C 14,4 C 66 % 1012,4 hPa 0,0 l/m 0 min 0 min 142 W/m 12,9 km/h (3 Bft) 97,87 %
15.03.2020 16:04 15,1 C 15,0 C 14,4 C 66 % 1012,4 hPa 0,0 l/m 0 min 0 min 131 W/m 0,0 km/h (0 Bft) 97,87 %
15.03.2020 16:06 15,1 C 15,0 C 14,4 C 66 % 1012,3 hPa 0,0 l/m 0 min 0 min 130 W/m 19,3 km/h (3 Bft) 97,83 %
15.03.2020 16:08 15,1 C 15,0 C 14,4 C 66 % 1012,3 hPa 0,0 l/m 0 min 0 min 145 W/m 12,9 km/h (3 Bft) 95,74 %
15.03.2020 16:10 15,1 C 14,4 C 13,9 C 65 % 1012,4 hPa 0,0 l/m 0 min 0 min 158 W/m 16,1 km/h (3 Bft) 97,87 %
15.03.2020 16:12 15,0 C 14,4 C 13,9 C 66 % 1012,3 hPa 0,0 l/m 0 min 0 min 146 W/m 3,2 km/h (1 Bft) 97,87 %
15.03.2020 16:14 15,0 C 14,4 C 13,9 C 66 % 1012,4 hPa 0,0 l/m 0 min 0 min 130 W/m 12,9 km/h (3 Bft) 95,12 %
15.03.2020 16:16 14,9 C 14,4 C 13,9 C 66 % 1012,4 hPa 0,0 l/m 0 min 0 min 115 W/m 3,2 km/h (1 Bft) 95,74 %
15.03.2020 16:18 14,9 C 14,4 C 13,9 C 66 % 1012,4 hPa 0,0 l/m 0 min 0 min 108 W/m 6,4 km/h (2 Bft) 97,92 %
15.03.2020 16:20 14,8 C 13,9 C 13,9 C 66 % 1012,3 hPa 0,0 l/m 0 min 0 min 102 W/m 0,0 km/h (0 Bft) 95,74 %
15.03.2020 16:22 14,8 C 13,9 C 13,9 C 66 % 1012,4 hPa 0,0 l/m 0 min 0 min 87 W/m 19,3 km/h (3 Bft) 97,92 %
15.03.2020 16:24 14,8 C 13,9 C 13,9 C 66 % 1012,4 hPa 0,0 l/m 0 min 0 min 82 W/m 19,3 km/h (3 Bft) 97,87 %
15.03.2020 16:26 14,8 C 13,9 C 13,3 C 66 % 1012,4 hPa 0,0 l/m 0 min 0 min 75 W/m 25,7 km/h (4 Bft) 97,87 %
15.03.2020 16:28 14,7 C 13,9 C 13,3 C 66 % 1012,4 hPa 0,0 l/m 0 min 0 min 73 W/m 25,7 km/h (4 Bft) 97,87 %
15.03.2020 16:30 14,7 C 13,9 C 13,3 C 67 % 1012,4 hPa 0,0 l/m 0 min 0 min 76 W/m 6,4 km/h (2 Bft) 95,74 %
15.03.2020 16:32 14,7 C 13,9 C 13,3 C 67 % 1012,4 hPa 0,0 l/m 0 min 0 min 80 W/m 25,7 km/h (4 Bft) 95,74 %
15.03.2020 16:34 14,6 C 13,9 C 13,3 C 67 % 1012,4 hPa 0,0 l/m 0 min 0 min 88 W/m 25,7 km/h (4 Bft) 97,87 %
15.03.2020 16:36 14,6 C 13,9 C 13,3 C 67 % 1012,3 hPa 0,0 l/m 0 min 0 min 90 W/m 29,0 km/h (5 Bft) 95,74 %
15.03.2020 16:38 14,6 C 13,9 C 13,3 C 67 % 1012,4 hPa 0,0 l/m 0 min 0 min 80 W/m 0,0 km/h (0 Bft) 97,87 %
15.03.2020 16:40 14,6 C 13,9 C 13,3 C 67 % 1012,4 hPa 0,0 l/m 0 min 0 min 71 W/m 29,0 km/h (5 Bft) 95,74 %
15.03.2020 16:42 14,6 C 13,9 C 13,3 C 67 % 1012,4 hPa 0,0 l/m 0 min 0 min 67 W/m 29,0 km/h (5 Bft) 97,87 %
15.03.2020 16:44 14,5 C 13,9 C 13,3 C 67 % 1012,3 hPa 0,0 l/m 0 min 0 min 75 W/m 0,0 km/h (0 Bft) 100,00 %
15.03.2020 16:46 14,5 C 13,9 C 13,3 C 67 % 1012,3 hPa 0,0 l/m 0 min 0 min 99 W/m 3,2 km/h (1 Bft) 100,00 %
15.03.2020 16:48 14,5 C 15,0 C 13,9 C 67 % 1012,4 hPa 0,0 l/m 0 min 0 min 113 W/m 19,3 km/h (3 Bft) 100,00 %
15.03.2020 16:50 14,5 C 15,0 C 13,9 C 67 % 1012,3 hPa 0,0 l/m 0 min 0 min 116 W/m 3,2 km/h (1 Bft) 100,00 %
15.03.2020 16:52 14,5 C 14,4 C 13,9 C 67 % 1012,3 hPa 0,0 l/m 0 min 0 min 119 W/m 16,1 km/h (3 Bft) 97,83 %
15.03.2020 16:54 14,6 C 14,4 C 13,9 C 67 % 1012,3 hPa 0,0 l/m 0 min 0 min 113 W/m 3,2 km/h (1 Bft) 100,00 %
15.03.2020 16:56 14,6 C 14,4 C 13,9 C 68 % 1012,3 hPa 0,0 l/m 0 min 0 min 99 W/m 0,0 km/h (0 Bft) 97,87 %
15.03.2020 16:58 14,6 C 13,9 C 13,3 C 67 % 1012,2 hPa 0,0 l/m 0 min 0 min 84 W/m 16,1 km/h (3 Bft) 100,00 %
15.03.2020 17:00 14,6 C 13,9 C 13,3 C 67 % 1012,3 hPa 0,0 l/m 0 min 0 min 82 W/m 16,1 km/h (3 Bft) 100,00 %
15.03.2020 17:02 14,5 C 13,9 C 13,3 C 67 % 1012,3 hPa 0,0 l/m 0 min 0 min 75 W/m 3,2 km/h (1 Bft) 100,00 %
15.03.2020 17:04 14,5 C 13,9 C 13,3 C 68 % 1012,3 hPa 0,0 l/m 0 min 0 min 67 W/m 6,4 km/h (2 Bft) 100,00 %
15.03.2020 17:06 14,5 C 13,9 C 13,3 C 67 % 1012,3 hPa 0,0 l/m 0 min 0 min 72 W/m 0,0 km/h (0 Bft) 97,87 %
15.03.2020 17:08 14,5 C 13,9 C 13,3 C 67 % 1012,3 hPa 0,0 l/m 0 min 0 min 64 W/m 3,2 km/h (1 Bft) 95,74 %
15.03.2020 17:10 14,5 C 13,9 C 13,3 C 67 % 1012,3 hPa 0,0 l/m 0 min 0 min 64 W/m 12,9 km/h (3 Bft) 100,00 %
15.03.2020 17:12 14,5 C 13,9 C 13,3 C 67 % 1012,3 hPa 0,0 l/m 0 min 0 min 64 W/m 22,5 km/h (4 Bft) 100,00 %
15.03.2020 17:14 14,4 C 13,9 C 13,3 C 67 % 1012,3 hPa 0,0 l/m 0 min 0 min 62 W/m 3,2 km/h (1 Bft) 97,87 %
15.03.2020 17:16 14,4 C 13,9 C 13,3 C 67 % 1012,3 hPa 0,0 l/m 0 min 0 min 56 W/m 19,3 km/h (3 Bft) 97,83 %
15.03.2020 17:18 14,4 C 13,9 C 13,3 C 67 % 1012,3 hPa 0,0 l/m 0 min 0 min 51 W/m 12,9 km/h (3 Bft) 97,87 %
15.03.2020 17:20 14,4 C 13,9 C 13,3 C 67 % 1012,3 hPa 0,0 l/m 0 min 0 min 50 W/m 3,2 km/h (1 Bft) 97,87 %
15.03.2020 17:22 14,4 C 13,9 C 13,3 C 67 % 1012,3 hPa 0,0 l/m 0 min 0 min 53 W/m 16,1 km/h (3 Bft) 97,87 %
15.03.2020 17:24 14,4 C 13,9 C 13,3 C 68 % 1012,3 hPa 0,0 l/m 0 min 0 min 60 W/m 9,7 km/h (2 Bft) 97,87 %
15.03.2020 17:26 14,3 C 13,9 C 12,8 C 68 % 1012,3 hPa 0,0 l/m 0 min 0 min 65 W/m 19,3 km/h (3 Bft) 97,87 %
15.03.2020 17:28 14,3 C 13,9 C 13,3 C 68 % 1012,3 hPa 0,0 l/m 0 min 0 min 64 W/m 3,2 km/h (1 Bft) 97,83 %
15.03.2020 17:30 14,3 C 13,9 C 12,8 C 68 % 1012,2 hPa 0,0 l/m 0 min 0 min 64 W/m 0,0 km/h (0 Bft) 97,87 %
15.03.2020 17:32 14,3 C 13,9 C 12,8 C 68 % 1012,2 hPa 0,0 l/m 0 min 0 min 56 W/m 19,3 km/h (3 Bft) 97,92 %
15.03.2020 17:34 14,3 C 13,9 C 12,8 C 68 % 1012,2 hPa 0,0 l/m 0 min 0 min 53 W/m 3,2 km/h (1 Bft) 97,87 %
15.03.2020 17:36 14,3 C 13,9 C 12,8 C 68 % 1012,2 hPa 0,0 l/m 0 min 0 min 53 W/m 12,9 km/h (3 Bft) 97,56 %
15.03.2020 17:38 14,3 C 13,3 C 12,8 C 69 % 1012,2 hPa 0,0 l/m 0 min 0 min 56 W/m 12,9 km/h (3 Bft) 97,87 %
15.03.2020 17:40 14,3 C 13,3 C 12,8 C 69 % 1012,2 hPa 0,0 l/m 0 min 0 min 59 W/m 0,0 km/h (0 Bft) 97,92 %
15.03.2020 17:42 14,3 C 13,3 C 12,8 C 69 % 1012,2 hPa 0,0 l/m 0 min 0 min 55 W/m 0,0 km/h (0 Bft) 97,87 %
15.03.2020 17:44 14,3 C 13,3 C 12,8 C 69 % 1012,2 hPa 0,0 l/m 0 min 0 min 60 W/m 3,2 km/h (1 Bft) 95,83 %
15.03.2020 17:46 14,3 C 13,3 C 12,8 C 69 % 1012,2 hPa 0,0 l/m 0 min 0 min 49 W/m 6,4 km/h (2 Bft) 97,83 %
15.03.2020 17:48 14,3 C 13,3 C 12,8 C 69 % 1012,2 hPa 0,0 l/m 0 min 0 min 36 W/m 0,0 km/h (0 Bft) 100,00 %
15.03.2020 17:50 14,3 C 13,3 C 12,8 C 69 % 1012,2 hPa 0,0 l/m 0 min 0 min 33 W/m 3,2 km/h (1 Bft) 97,87 %
15.03.2020 17:52 14,2 C 13,3 C 12,8 C 69 % 1012,2 hPa 0,0 l/m 0 min 0 min 31 W/m 16,1 km/h (3 Bft) 97,87 %
15.03.2020 17:54 14,2 C 13,3 C 12,8 C 69 % 1012,2 hPa 0,0 l/m 0 min 0 min 24 W/m 6,4 km/h (2 Bft) 97,92 %
15.03.2020 17:56 14,2 C 13,3 C 12,8 C 69 % 1012,3 hPa 0,0 l/m 0 min 0 min 19 W/m 0,0 km/h (0 Bft) 95,74 %
15.03.2020 17:58 14,1 C 12,8 C 12,2 C 69 % 1012,3 hPa 0,0 l/m 0 min 0 min 19 W/m 0,0 km/h (0 Bft) 97,83 %
15.03.2020 18:00 14,1 C 12,8 C 12,2 C 69 % 1012,3 hPa 0,0 l/m 0 min 0 min 18 W/m 12,9 km/h (3 Bft) 97,87 %
15.03.2020 18:02 14,1 C 12,8 C 12,2 C 69 % 1012,3 hPa 0,0 l/m 0 min 0 min 17 W/m 3,2 km/h (1 Bft) 95,74 %
15.03.2020 18:04 14,1 C 12,8 C 12,2 C 69 % 1012,3 hPa 0,0 l/m 0 min 0 min 18 W/m 6,4 km/h (2 Bft) 97,87 %
15.03.2020 18:08 13,9 C 12,8 C 12,2 C 69 % 1012,3 hPa 0,0 l/m 0 min 0 min 17 W/m 16,1 km/h (3 Bft) 98,94 %
15.03.2020 18:10 13,9 C 12,8 C 12,2 C 69 % 1012,3 hPa 0,0 l/m 0 min 0 min 16 W/m 9,7 km/h (2 Bft) 100,00 %
15.03.2020 18:12 13,8 C 12,8 C 12,2 C 69 % 1012,3 hPa 0,0 l/m 0 min 0 min 17 W/m 6,4 km/h (2 Bft) 100,00 %
15.03.2020 18:14 13,8 C 12,8 C 12,2 C 69 % 1012,3 hPa 0,0 l/m 0 min 0 min 18 W/m 0,0 km/h (0 Bft) 100,00 %
15.03.2020 18:16 13,8 C 12,8 C 12,2 C 69 % 1012,3 hPa 0,0 l/m 0 min 0 min 15 W/m 0,0 km/h (0 Bft) 100,00 %
15.03.2020 18:18 13,8 C 12,8 C 12,2 C 69 % 1012,3 hPa 0,0 l/m 0 min 0 min 14 W/m 0,0 km/h (0 Bft) 97,87 %
15.03.2020 18:20 13,7 C 12,8 C 12,2 C 70 % 1012,3 hPa 0,0 l/m 0 min 0 min 12 W/m 0,0 km/h (0 Bft) 95,74 %
15.03.2020 18:22 13,7 C 12,8 C 11,7 C 70 % 1012,3 hPa 0,0 l/m 0 min 0 min 12 W/m 0,0 km/h (0 Bft) 97,87 %
15.03.2020 18:24 13,7 C 12,8 C 11,7 C 70 % 1012,3 hPa 0,0 l/m 0 min 0 min 12 W/m 6,4 km/h (2 Bft) 97,87 %
15.03.2020 18:26 13,6 C 12,8 C 11,7 C 70 % 1012,3 hPa 0,0 l/m 0 min 0 min 10 W/m 12,9 km/h (3 Bft) 97,83 %
15.03.2020 18:28 13,6 C 12,2 C 11,7 C 70 % 1012,3 hPa 0,0 l/m 0 min 0 min 9 W/m 0,0 km/h (0 Bft) 95,74 %
15.03.2020 18:30 13,6 C 12,2 C 11,7 C 70 % 1012,3 hPa 0,0 l/m 0 min 0 min 9 W/m 0,0 km/h (0 Bft) 97,87 %
15.03.2020 18:32 13,6 C 12,2 C 11,7 C 70 % 1012,4 hPa 0,0 l/m 0 min 0 min 7 W/m 0,0 km/h (0 Bft) 97,87 %
15.03.2020 18:34 13,5 C 12,2 C 11,7 C 70 % 1012,4 hPa 0,0 l/m 0 min 0 min 7 W/m 0,0 km/h (0 Bft) 97,87 %
15.03.2020 18:36 13,5 C 12,2 C 11,7 C 70 % 1012,4 hPa 0,0 l/m 0 min 0 min 5 W/m 0,0 km/h (0 Bft) 97,83 %
15.03.2020 18:38 13,4 C 12,2 C 11,7 C 70 % 1012,4 hPa 0,0 l/m 0 min 0 min 5 W/m 0,0 km/h (0 Bft) 97,87 %
15.03.2020 18:40 13,4 C 12,2 C 11,7 C 70 % 1012,3 hPa 0,0 l/m 0 min 0 min 0 W/m 0,0 km/h (0 Bft) 97,87 %
15.03.2020 18:42 13,4 C 12,2 C 11,7 C 71 % 1012,4 hPa 0,0 l/m 0 min 0 min 0 W/m 0,0 km/h (0 Bft) 97,87 %
15.03.2020 18:44 13,4 C 12,2 C 11,7 C 71 % 1012,4 hPa 0,0 l/m 0 min 0 min 0 W/m 0,0 km/h (0 Bft) 95,74 %
15.03.2020 18:46 13,3 C 12,2 C 11,7 C 71 % 1012,4 hPa 0,0 l/m 0 min 0 min 0 W/m 0,0 km/h (0 Bft) 95,74 %
15.03.2020 18:48 13,3 C 12,2 C 11,7 C 71 % 1012,5 hPa 0,0 l/m 0 min 0 min 0 W/m 0,0 km/h (0 Bft) 95,65 %
15.03.2020 18:50 13,3 C 12,2 C 11,7 C 71 % 1012,5 hPa 0,0 l/m 0 min 0 min 0 W/m 0,0 km/h (0 Bft) 95,74 %
15.03.2020 18:52 13,3 C 12,2 C 11,7 C 71 % 1012,5 hPa 0,0 l/m 0 min 0 min 0 W/m 0,0 km/h (0 Bft) 95,74 %
15.03.2020 18:54 13,2 C 12,2 C 11,7 C 72 % 1012,5 hPa 0,0 l/m 0 min 0 min 0 W/m 0,0 km/h (0 Bft) 93,62 %
15.03.2020 18:56 13,2 C 12,2 C 11,7 C 72 % 1012,5 hPa 0,0 l/m 0 min 0 min 0 W/m 0,0 km/h (0 Bft) 95,74 %
15.03.2020 18:58 13,2 C 12,2 C 11,7 C 72 % 1012,6 hPa 0,0 l/m 0 min 0 min 0 W/m 0,0 km/h (0 Bft) 95,74 %
15.03.2020 19:00 13,2 C 12,2 C 11,7 C 72 % 1012,6 hPa 0,0 l/m 0 min 0 min 0 W/m 0,0 km/h (0 Bft) 95,65 %
15.03.2020 19:02 13,2 C 12,2 C 11,7 C 72 % 1012,6 hPa 0,0 l/m 0 min 0 min 0 W/m 0,0 km/h (0 Bft) 93,62 %
15.03.2020 19:04 13,1 C 12,2 C 11,7 C 72 % 1012,6 hPa 0,0 l/m 0 min 0 min 0 W/m 0,0 km/h (0 Bft) 93,18 %
15.03.2020 19:06 13,1 C 12,2 C 11,7 C 72 % 1012,7 hPa 0,0 l/m 0 min 0 min 0 W/m 0,0 km/h (0 Bft) 95,74 %
15.03.2020 19:08 13,1 C 12,2 C 11,7 C 72 % 1012,7 hPa 0,0 l/m 0 min 0 min 0 W/m 0,0 km/h (0 Bft) 95,65 %
15.03.2020 19:10 13,1 C 12,2 C 11,7 C 72 % 1012,7 hPa 0,0 l/m 0 min 0 min 0 W/m 0,0 km/h (0 Bft) 95,74 %
15.03.2020 19:12 13,1 C 12,2 C 11,1 C 72 % 1012,7 hPa 0,0 l/m 0 min 0 min 0 W/m 0,0 km/h (0 Bft) 93,62 %
15.03.2020 19:14 13,1 C 12,2 C 11,1 C 73 % 1012,8 hPa 0,0 l/m 0 min 0 min 0 W/m 0,0 km/h (0 Bft) 95,83 %
15.03.2020 19:16 13,0 C 11,7 C 11,1 C 73 % 1012,7 hPa 0,0 l/m 0 min 0 min 0 W/m 0,0 km/h (0 Bft) 95,74 %
15.03.2020 19:18 13,0 C 11,7 C 11,1 C 73 % 1012,8 hPa 0,0 l/m 0 min 0 min 0 W/m 0,0 km/h (0 Bft) 95,74 %
15.03.2020 19:20 12,9 C 11,7 C 11,1 C 73 % 1012,8 hPa 0,0 l/m 0 min 0 min 0 W/m 0,0 km/h (0 Bft) 93,48 %
15.03.2020 19:22 12,9 C 11,7 C 11,1 C 73 % 1012,8 hPa 0,0 l/m 0 min 0 min 0 W/m 0,0 km/h (0 Bft) 97,87 %
15.03.2020 19:24 12,9 C 11,7 C 11,1 C 73 % 1012,8 hPa 0,0 l/m 0 min 0 min 0 W/m 0,0 km/h (0 Bft) 97,92 %
15.03.2020 19:26 12,9 C 11,7 C 11,1 C 73 % 1012,8 hPa 0,0 l/m 0 min 0 min 0 W/m 0,0 km/h (0 Bft) 97,92 %
15.03.2020 19:28 12,9 C 11,7 C 11,1 C 73 % 1012,8 hPa 0,0 l/m 0 min 0 min 0 W/m 3,2 km/h (1 Bft) 95,74 %
15.03.2020 19:30 12,8 C 11,7 C 11,1 C 73 % 1012,8 hPa 0,0 l/m 0 min 0 min 0 W/m 0,0 km/h (0 Bft) 97,83 %
15.03.2020 19:32 12,8 C 11,7 C 11,1 C 73 % 1012,7 hPa 0,0 l/m 0 min 0 min 0 W/m 0,0 km/h (0 Bft) 97,87 %
15.03.2020 19:34 12,8 C 11,7 C 11,1 C 73 % 1012,8 hPa 0,0 l/m 0 min 0 min 0 W/m 3,2 km/h (1 Bft) 100,00 %
15.03.2020 19:36 12,8 C 11,7 C 11,1 C 73 % 1012,8 hPa 0,0 l/m 0 min 0 min 0 W/m 12,9 km/h (3 Bft) 100,00 %
15.03.2020 19:38 12,7 C 11,7 C 11,1 C 73 % 1012,8 hPa 0,0 l/m 0 min 0 min 0 W/m 6,4 km/h (2 Bft) 100,00 %
15.03.2020 19:40 12,7 C 11,7 C 11,1 C 73 % 1012,8 hPa 0,0 l/m 0 min 0 min 0 W/m 0,0 km/h (0 Bft) 100,00 %
15.03.2020 19:42 12,7 C 11,7 C 11,1 C 73 % 1012,8 hPa 0,0 l/m 0 min 0 min 0 W/m 0,0 km/h (0 Bft) 89,36 %
15.03.2020 19:44 12,7 C 11,7 C 11,1 C 73 % 1012,8 hPa 0,0 l/m 0 min 0 min 0 W/m 3,2 km/h (1 Bft) 100,00 %
15.03.2020 19:46 12,7 C 11,7 C 11,1 C 73 % 1012,8 hPa 0,0 l/m 0 min 0 min 0 W/m 0,0 km/h (0 Bft) 100,00 %
15.03.2020 19:48 12,6 C 11,7 C 10,6 C 73 % 1012,8 hPa 0,0 l/m 0 min 0 min 0 W/m 0,0 km/h (0 Bft) 100,00 %
15.03.2020 19:50 12,6 C 11,7 C 11,1 C 73 % 1012,9 hPa 0,0 l/m 0 min 0 min 0 W/m 0,0 km/h (0 Bft) 100,00 %
15.03.2020 19:52 12,6 C 11,7 C 10,6 C 73 % 1012,8 hPa 0,0 l/m 0 min 0 min 0 W/m 0,0 km/h (0 Bft) 97,87 %
15.03.2020 19:54 12,6 C 11,7 C 10,6 C 73 % 1012,8 hPa 0,0 l/m 0 min 0 min 0 W/m 0,0 km/h (0 Bft) 100,00 %
15.03.2020 19:56 12,6 C 11,7 C 10,6 C 74 % 1012,9 hPa 0,0 l/m 0 min 0 min 0 W/m 0,0 km/h (0 Bft) 100,00 %
15.03.2020 19:58 12,5 C 11,7 C 10,6 C 74 % 1012,9 hPa 0,0 l/m 0 min 0 min 0 W/m 0,0 km/h (0 Bft) 100,00 %
15.03.2020 20:00 12,5 C 11,1 C 10,6 C 74 % 1012,8 hPa 0,0 l/m 0 min 0 min 0 W/m 0,0 km/h (0 Bft) 95,74 %
15.03.2020 20:02 12,5 C 11,7 C 10,6 C 74 % 1012,8 hPa 0,0 l/m 0 min 0 min 0 W/m 0,0 km/h (0 Bft) 97,87 %
15.03.2020 20:04 12,4 C 11,1 C 10,6 C 74 % 1012,9 hPa 0,0 l/m 0 min 0 min 0 W/m 0,0 km/h (0 Bft) 97,96 %
15.03.2020 20:06 12,4 C 11,1 C 10,6 C 74 % 1012,9 hPa 0,0 l/m 0 min 0 min 0 W/m 0,0 km/h (0 Bft) 97,87 %
15.03.2020 20:08 12,4 C 11,1 C 10,6 C 74 % 1012,8 hPa 0,0 l/m 0 min 0 min 0 W/m 0,0 km/h (0 Bft) 97,87 %
15.03.2020 20:10 12,3 C 11,1 C 10,6 C 74 % 1012,8 hPa 0,0 l/m 0 min 0 min 0 W/m 0,0 km/h (0 Bft) 97,83 %
15.03.2020 20:12 12,3 C 11,1 C 10,6 C 74 % 1012,8 hPa 0,0 l/m 0 min 0 min 0 W/m 0,0 km/h (0 Bft) 97,87 %
15.03.2020 20:14 12,3 C 11,1 C 10,6 C 74 % 1012,8 hPa 0,0 l/m 0 min 0 min 0 W/m 0,0 km/h (0 Bft) 97,87 %
15.03.2020 20:16 12,3 C 11,1 C 10,6 C 74 % 1012,8 hPa 0,0 l/m 0 min 0 min 0 W/m 0,0 km/h (0 Bft) 97,87 %
15.03.2020 20:18 12,2 C 11,1 C 10,6 C 74 % 1012,8 hPa 0,0 l/m 0 min 0 min 0 W/m 0,0 km/h (0 Bft) 97,87 %
15.03.2020 20:20 12,2 C 11,1 C 10,6 C 74 % 1012,8 hPa 0,0 l/m 0 min 0 min 0 W/m 0,0 km/h (0 Bft) 97,87 %
15.03.2020 20:22 12,2 C 11,1 C 10,6 C 74 % 1012,8 hPa 0,0 l/m 0 min 0 min 0 W/m 0,0 km/h (0 Bft) 97,83 %
15.03.2020 20:24 12,2 C 11,1 C 10,6 C 74 % 1012,9 hPa 0,0 l/m 0 min 0 min 0 W/m 0,0 km/h (0 Bft) 97,87 %
15.03.2020 20:26 12,2 C 11,1 C 10,6 C 74 % 1012,9 hPa 0,0 l/m 0 min 0 min 0 W/m 0,0 km/h (0 Bft) 97,87 %
15.03.2020 20:28 12,1 C 11,1 C 10,6 C 74 % 1012,9 hPa 0,0 l/m 0 min 0 min 0 W/m 3,2 km/h (1 Bft) 95,74 %
15.03.2020 20:30 12,1 C 11,1 C 10,6 C 74 % 1012,9 hPa 0,0 l/m 0 min 0 min 0 W/m 12,9 km/h (3 Bft) 97,87 %
15.03.2020 20:32 12,1 C 11,1 C 10,6 C 74 % 1012,9 hPa 0,0 l/m 0 min 0 min 0 W/m 3,2 km/h (1 Bft) 97,87 %
15.03.2020 20:34 12,1 C 11,1 C 10,6 C 74 % 1012,9 hPa 0,0 l/m 0 min 0 min 0 W/m 0,0 km/h (0 Bft) 97,83 %
15.03.2020 20:36 12,1 C 11,1 C 10,6 C 74 % 1012,9 hPa 0,0 l/m 0 min 0 min 0 W/m 0,0 km/h (0 Bft) 97,87 %
15.03.2020 20:38 12,1 C 11,1 C 10,6 C 74 % 1012,9 hPa 0,0 l/m 0 min 0 min 0 W/m 0,0 km/h (0 Bft) 97,87 %
15.03.2020 20:40 12,0 C 11,1 C 10,6 C 74 % 1012,9 hPa 0,0 l/m 0 min 0 min 0 W/m 0,0 km/h (0 Bft) 97,87 %
15.03.2020 20:42 12,0 C 11,1 C 10,6 C 74 % 1012,9 hPa 0,0 l/m 0 min 0 min 0 W/m 3,2 km/h (1 Bft) 97,87 %
15.03.2020 20:44 11,9 C 11,1 C 10,6 C 74 % 1012,9 hPa 0,0 l/m 0 min 0 min 0 W/m 0,0 km/h (0 Bft) 100,00 %
15.03.2020 20:46 11,9 C 11,1 C 10,6 C 74 % 1012,9 hPa 0,0 l/m 0 min 0 min 0 W/m 0,0 km/h (0 Bft) 97,87 %
15.03.2020 20:48 11,9 C 11,1 C 10,6 C 74 % 1012,9 hPa 0,0 l/m 0 min 0 min 0 W/m 0,0 km/h (0 Bft) 100,00 %
15.03.2020 20:50 11,9 C 11,1 C 10,6 C 74 % 1012,9 hPa 0,0 l/m 0 min 0 min 0 W/m 0,0 km/h (0 Bft) 97,87 %
15.03.2020 20:52 11,9 C 11,1 C 10,6 C 74 % 1012,9 hPa 0,0 l/m 0 min 0 min 0 W/m 0,0 km/h (0 Bft) 100,00 %
15.03.2020 20:54 11,9 C 11,1 C 10,6 C 74 % 1012,9 hPa 0,0 l/m 0 min 0 min 0 W/m 0,0 km/h (0 Bft) 100,00 %
15.03.2020 20:56 11,9 C 11,1 C 10,0 C 74 % 1012,9 hPa 0,0 l/m 0 min 0 min 0 W/m 0,0 km/h (0 Bft) 100,00 %
15.03.2020 20:58 11,8 C 10,6 C 10,0 C 74 % 1012,9 hPa 0,0 l/m 0 min 0 min 0 W/m 0,0 km/h (0 Bft) 100,00 %
15.03.2020 21:00 11,8 C 11,1 C 10,0 C 74 % 1013,0 hPa 0,0 l/m 0 min 0 min 0 W/m 6,4 km/h (2 Bft) 97,87 %
15.03.2020 21:02 11,8 C 10,6 C 10,0 C 74 % 1012,9 hPa 0,0 l/m 0 min 0 min 0 W/m 0,0 km/h (0 Bft) 100,00 %
15.03.2020 21:04 11,8 C 10,6 C 10,0 C 74 % 1013,0 hPa 0,0 l/m 0 min 0 min 0 W/m 0,0 km/h (0 Bft) 100,00 %
15.03.2020 21:06 11,8 C 10,6 C 10,0 C 74 % 1012,9 hPa 0,0 l/m 0 min 0 min 0 W/m 0,0 km/h (0 Bft) 100,00 %
15.03.2020 21:08 11,8 C 10,6 C 10,0 C 74 % 1012,9 hPa 0,0 l/m 0 min 0 min 0 W/m 3,2 km/h (1 Bft) 100,00 %
15.03.2020 21:10 11,7 C 10,6 C 10,0 C 74 % 1013,0 hPa 0,0 l/m 0 min 0 min 0 W/m 0,0 km/h (0 Bft) 100,00 %
15.03.2020 21:12 11,7 C 10,6 C 10,0 C 74 % 1012,9 hPa 0,0 l/m 0 min 0 min 0 W/m 3,2 km/h (1 Bft) 100,00 %
15.03.2020 21:14 11,7 C 10,6 C 10,0 C 74 % 1013,0 hPa 0,0 l/m 0 min 0 min 0 W/m 0,0 km/h (0 Bft) 100,00 %
15.03.2020 21:16 11,7 C 10,6 C 10,0 C 74 % 1013,0 hPa 0,0 l/m 0 min 0 min 0 W/m 0,0 km/h (0 Bft) 100,00 %
15.03.2020 21:18 11,7 C 10,6 C 10,0 C 74 % 1013,0 hPa 0,0 l/m 0 min 0 min 0 W/m 0,0 km/h (0 Bft) 100,00 %
15.03.2020 21:20 11,6 C 10,6 C 10,0 C 74 % 1013,0 hPa 0,0 l/m 0 min 0 min 0 W/m 0,0 km/h (0 Bft) 100,00 %
15.03.2020 21:22 11,6 C 10,6 C 9,4 C 74 % 1013,0 hPa 0,0 l/m 0 min 0 min 0 W/m 0,0 km/h (0 Bft) 100,00 %
15.03.2020 21:24 11,6 C 10,6 C 9,4 C 74 % 1013,0 hPa 0,0 l/m 0 min 0 min 0 W/m 6,4 km/h (2 Bft) 97,87 %
15.03.2020 21:26 11,5 C 10,0 C 9,4 C 74 % 1013,0 hPa 0,0 l/m 0 min 0 min 0 W/m 0,0 km/h (0 Bft) 100,00 %
15.03.2020 21:28 11,5 C 10,0 C 9,4 C 74 % 1013,0 hPa 0,0 l/m 0 min 0 min 0 W/m 0,0 km/h (0 Bft) 97,87 %
15.03.2020 21:30 11,4 C 10,0 C 9,4 C 74 % 1013,0 hPa 0,0 l/m 0 min 0 min 0 W/m 6,4 km/h (2 Bft) 97,87 %
15.03.2020 21:32 11,4 C 10,0 C 9,4 C 74 % 1013,0 hPa 0,0 l/m 0 min 0 min 0 W/m 0,0 km/h (0 Bft) 54,55 %
15.03.2020 21:34 11,4 C 10,0 C 9,4 C 74 % 1013,0 hPa 0,0 l/m 0 min 0 min 0 W/m 0,0 km/h (0 Bft) 97,87 %
15.03.2020 21:36 11,4 C 10,0 C 9,4 C 74 % 1013,0 hPa 0,0 l/m 0 min 0 min 0 W/m 0,0 km/h (0 Bft) 100,00 %
15.03.2020 21:38 11,3 C 10,0 C 9,4 C 74 % 1013,0 hPa 0,0 l/m 0 min 0 min 0 W/m 0,0 km/h (0 Bft) 97,87 %
15.03.2020 21:40 11,3 C 10,0 C 9,4 C 74 % 1012,9 hPa 0,0 l/m 0 min 0 min 0 W/m 0,0 km/h (0 Bft) 97,87 %
15.03.2020 21:42 11,3 C 10,0 C 9,4 C 74 % 1013,0 hPa 0,0 l/m 0 min 0 min 0 W/m 0,0 km/h (0 Bft) 97,87 %
15.03.2020 21:44 11,2 C 10,0 C 9,4 C 74 % 1013,0 hPa 0,0 l/m 0 min 0 min 0 W/m 3,2 km/h (1 Bft) 97,83 %
15.03.2020 21:46 11,2 C 10,0 C 8,9 C 74 % 1013,0 hPa 0,0 l/m 0 min 0 min 0 W/m 0,0 km/h (0 Bft) 97,87 %
15.03.2020 21:48 11,2 C 10,0 C 8,9 C 74 % 1013,0 hPa 0,0 l/m 0 min 0 min 0 W/m 0,0 km/h (0 Bft) 95,74 %
15.03.2020 21:50 11,1 C 10,0 C 8,9 C 74 % 1013,0 hPa 0,0 l/m 0 min 0 min 0 W/m 0,0 km/h (0 Bft) 95,74 %
15.03.2020 21:52 11,1 C 10,0 C 8,9 C 74 % 1013,0 hPa 0,0 l/m 0 min 0 min 0 W/m 3,2 km/h (1 Bft) 95,74 %
15.03.2020 21:54 11,1 C 10,0 C 8,9 C 74 % 1013,0 hPa 0,0 l/m 0 min 0 min 0 W/m 0,0 km/h (0 Bft) 97,83 %
15.03.2020 21:56 11,0 C 10,0 C 8,9 C 74 % 1012,9 hPa 0,0 l/m 0 min 0 min 0 W/m 6,4 km/h (2 Bft) 97,87 %
15.03.2020 21:58 10,9 C 10,0 C 8,9 C 74 % 1013,0 hPa 0,0 l/m 0 min 0 min 0 W/m 12,9 km/h (3 Bft) 97,87 %
15.03.2020 22:00 10,9 C 10,0 C 8,9 C 74 % 1012,9 hPa 0,0 l/m 0 min 0 min 0 W/m 6,4 km/h (2 Bft) 97,87 %
15.03.2020 22:02 10,9 C 9,4 C 8,9 C 74 % 1012,9 hPa 0,0 l/m 0 min 0 min 0 W/m 0,0 km/h (0 Bft) 97,87 %
15.03.2020 22:04 10,8 C 9,4 C 8,9 C 74 % 1012,9 hPa 0,0 l/m 0 min 0 min 0 W/m 0,0 km/h (0 Bft) 95,74 %
15.03.2020 22:06 10,8 C 9,4 C 8,9 C 75 % 1012,9 hPa 0,0 l/m 0 min 0 min 0 W/m 0,0 km/h (0 Bft) 95,65 %
15.03.2020 22:08 10,8 C 9,4 C 8,9 C 75 % 1013,0 hPa 0,0 l/m 0 min 0 min 0 W/m 0,0 km/h (0 Bft) 95,74 %
15.03.2020 22:10 10,8 C 9,4 C 8,9 C 75 % 1013,0 hPa 0,0 l/m 0 min 0 min 0 W/m 0,0 km/h (0 Bft) 93,62 %
15.03.2020 22:12 10,7 C 9,4 C 8,9 C 75 % 1013,0 hPa 0,0 l/m 0 min 0 min 0 W/m 0,0 km/h (0 Bft) 95,74 %
15.03.2020 22:14 10,7 C 9,4 C 8,9 C 75 % 1013,0 hPa 0,0 l/m 0 min 0 min 0 W/m 0,0 km/h (0 Bft) 93,62 %
15.03.2020 22:16 10,7 C 9,4 C 8,9 C 75 % 1013,1 hPa 0,0 l/m 0 min 0 min 0 W/m 0,0 km/h (0 Bft) 95,74 %
15.03.2020 22:18 10,6 C 9,4 C 8,3 C 75 % 1013,1 hPa 0,0 l/m 0 min 0 min 0 W/m 0,0 km/h (0 Bft) 93,48 %
15.03.2020 22:20 10,6 C 9,4 C 8,3 C 75 % 1013,1 hPa 0,0 l/m 0 min 0 min 0 W/m 0,0 km/h (0 Bft) 93,62 %
15.03.2020 22:22 10,6 C 9,4 C 8,3 C 75 % 1013,1 hPa 0,0 l/m 0 min 0 min 0 W/m 0,0 km/h (0 Bft) 93,62 %
15.03.2020 22:24 10,6 C 9,4 C 8,3 C 75 % 1013,1 hPa 0,0 l/m 0 min 0 min 0 W/m 0,0 km/h (0 Bft) 95,74 %
15.03.2020 22:26 10,6 C 8,9 C 8,3 C 75 % 1013,2 hPa 0,0 l/m 0 min 0 min 0 W/m 0,0 km/h (0 Bft) 95,74 %
15.03.2020 22:28 10,5 C 8,9 C 7,8 C 75 % 1013,2 hPa 0,0 l/m 0 min 0 min 0 W/m 0,0 km/h (0 Bft) 95,74 %
15.03.2020 22:30 10,5 C 8,9 C 7,8 C 75 % 1013,2 hPa 0,0 l/m 0 min 0 min 0 W/m 0,0 km/h (0 Bft) 95,65 %
15.03.2020 22:32 10,4 C 8,9 C 7,8 C 75 % 1013,2 hPa 0,0 l/m 0 min 0 min 0 W/m 0,0 km/h (0 Bft) 95,74 %
15.03.2020 22:34 10,4 C 8,9 C 7,8 C 75 % 1013,2 hPa 0,0 l/m 0 min 0 min 0 W/m 0,0 km/h (0 Bft) 97,87 %
15.03.2020 22:36 10,4 C 8,9 C 7,8 C 75 % 1013,2 hPa 0,0 l/m 0 min 0 min 0 W/m 0,0 km/h (0 Bft) 95,74 %
15.03.2020 22:38 10,3 C 8,9 C 7,8 C 75 % 1013,2 hPa 0,0 l/m 0 min 0 min 0 W/m 0,0 km/h (0 Bft) 93,62 %
15.03.2020 22:40 10,3 C 8,9 C 7,8 C 75 % 1013,3 hPa 0,0 l/m 0 min 0 min 0 W/m 0,0 km/h (0 Bft) 97,87 %
15.03.2020 22:42 10,2 C 8,9 C 7,8 C 76 % 1013,3 hPa 0,0 l/m 0 min 0 min 0 W/m 0,0 km/h (0 Bft) 95,65 %
15.03.2020 22:44 10,2 C 8,9 C 7,8 C 76 % 1013,3 hPa 0,0 l/m 0 min 0 min 0 W/m 0,0 km/h (0 Bft) 93,62 %
15.03.2020 22:46 10,2 C 8,9 C 7,2 C 76 % 1013,3 hPa 0,0 l/m 0 min 0 min 0 W/m 0,0 km/h (0 Bft) 93,62 %
15.03.2020 22:48 10,1 C 8,3 C 7,2 C 76 % 1013,3 hPa 0,0 l/m 0 min 0 min 0 W/m 0,0 km/h (0 Bft) 95,74 %
15.03.2020 22:50 10,1 C 8,3 C 7,2 C 76 % 1013,3 hPa 0,0 l/m 0 min 0 min 0 W/m 0,0 km/h (0 Bft) 95,74 %
15.03.2020 22:52 10,1 C 7,8 C 6,7 C 76 % 1013,3 hPa 0,0 l/m 0 min 0 min 0 W/m 0,0 km/h (0 Bft) 95,65 %
15.03.2020 22:55 10,0 C 7,8 C 6,7 C 76 % 1013,4 hPa 0,0 l/m 0 min 0 min 0 W/m 0,0 km/h (0 Bft) 97,10 %
15.03.2020 22:56 10,0 C 7,8 C 6,7 C 76 % 1013,4 hPa 0,0 l/m 0 min 0 min 0 W/m 0,0 km/h (0 Bft) 91,30 %
15.03.2020 22:58 9,9 C 7,2 C 6,7 C 76 % 1013,4 hPa 0,0 l/m 0 min 0 min 0 W/m 0,0 km/h (0 Bft) 95,74 %
15.03.2020 23:00 9,9 C 7,2 C 6,1 C 76 % 1013,4 hPa 0,0 l/m 0 min 0 min 0 W/m 0,0 km/h (0 Bft) 95,74 %
15.03.2020 23:02 9,8 C 7,2 C 6,1 C 76 % 1013,5 hPa 0,0 l/m 0 min 0 min 0 W/m 0,0 km/h (0 Bft) 95,74 %
15.03.2020 23:04 9,7 C 7,2 C 6,1 C 76 % 1013,5 hPa 0,0 l/m 0 min 0 min 0 W/m 0,0 km/h (0 Bft) 93,62 %
15.03.2020 23:06 9,7 C 6,7 C 5,6 C 76 % 1013,4 hPa 0,0 l/m 0 min 0 min 0 W/m 0,0 km/h (0 Bft) 95,65 %
15.03.2020 23:08 9,6 C 6,7 C 5,6 C 76 % 1013,4 hPa 0,0 l/m 0 min 0 min 0 W/m 0,0 km/h (0 Bft) 95,74 %
15.03.2020 23:10 9,6 C 6,7 C 5,6 C 76 % 1013,4 hPa 0,0 l/m 0 min 0 min 0 W/m 0,0 km/h (0 Bft) 95,74 %
15.03.2020 23:12 9,5 C 7,2 C 5,6 C 77 % 1013,5 hPa 0,0 l/m 0 min 0 min 0 W/m 0,0 km/h (0 Bft) 95,74 %
15.03.2020 23:14 9,4 C 7,2 C 5,6 C 77 % 1013,4 hPa 0,0 l/m 0 min 0 min 0 W/m 0,0 km/h (0 Bft) 97,87 %
15.03.2020 23:16 9,3 C 7,2 C 5,6 C 77 % 1013,4 hPa 0,0 l/m 0 min 0 min 0 W/m 0,0 km/h (0 Bft) 100,00 %
15.03.2020 23:18 9,3 C 7,2 C 5,6 C 77 % 1013,4 hPa 0,0 l/m 0 min 0 min 0 W/m 0,0 km/h (0 Bft) 100,00 %
15.03.2020 23:20 9,3 C 7,2 C 5,0 C 77 % 1013,4 hPa 0,0 l/m 0 min 0 min 0 W/m 0,0 km/h (0 Bft) 100,00 %
15.03.2020 23:22 9,2 C 7,2 C 5,0 C 77 % 1013,5 hPa 0,0 l/m 0 min 0 min 0 W/m 0,0 km/h (0 Bft) 100,00 %
15.03.2020 23:24 9,1 C 7,2 C 5,0 C 77 % 1013,5 hPa 0,0 l/m 0 min 0 min 0 W/m 0,0 km/h (0 Bft) 100,00 %
15.03.2020 23:26 9,1 C 7,2 C 5,6 C 78 % 1013,5 hPa 0,0 l/m 0 min 0 min 0 W/m 0,0 km/h (0 Bft) 100,00 %
15.03.2020 23:28 9,0 C 7,2 C 5,6 C 78 % 1013,5 hPa 0,0 l/m 0 min 0 min 0 W/m 0,0 km/h (0 Bft) 97,83 %
15.03.2020 23:30 9,0 C 7,2 C 5,6 C 78 % 1013,5 hPa 0,0 l/m 0 min 0 min 0 W/m 0,0 km/h (0 Bft) 100,00 %
15.03.2020 23:32 8,9 C 7,8 C 5,6 C 78 % 1013,5 hPa 0,0 l/m 0 min 0 min 0 W/m 0,0 km/h (0 Bft) 100,00 %
15.03.2020 23:34 8,8 C 7,8 C 6,1 C 78 % 1013,4 hPa 0,0 l/m 0 min 0 min 0 W/m 0,0 km/h (0 Bft) 100,00 %
15.03.2020 23:36 8,8 C 7,8 C 6,1 C 78 % 1013,4 hPa 0,0 l/m 0 min 0 min 0 W/m 0,0 km/h (0 Bft) 100,00 %
15.03.2020 23:38 8,8 C 7,8 C 6,1 C 79 % 1013,4 hPa 0,0 l/m 0 min 0 min 0 W/m 0,0 km/h (0 Bft) 97,87 %
15.03.2020 23:40 8,7 C 7,8 C 6,1 C 79 % 1013,4 hPa 0,0 l/m 0 min 0 min 0 W/m 0,0 km/h (0 Bft) 97,83 %
15.03.2020 23:42 8,7 C 7,8 C 6,7 C 79 % 1013,4 hPa 0,0 l/m 0 min 0 min 0 W/m 0,0 km/h (0 Bft) 100,00 %
15.03.2020 23:44 8,7 C 7,8 C 6,7 C 79 % 1013,4 hPa 0,0 l/m 0 min 0 min 0 W/m 0,0 km/h (0 Bft) 100,00 %
15.03.2020 23:46 8,6 C 7,8 C 6,7 C 79 % 1013,4 hPa 0,0 l/m 0 min 0 min 0 W/m 0,0 km/h (0 Bft) 100,00 %
15.03.2020 23:48 8,6 C 7,8 C 6,7 C 79 % 1013,4 hPa 0,0 l/m 0 min 0 min 0 W/m 0,0 km/h (0 Bft) 100,00 %
15.03.2020 23:50 8,6 C 7,8 C 6,7 C 79 % 1013,4 hPa 0,0 l/m 0 min 0 min 0 W/m 0,0 km/h (0 Bft) 100,00 %
15.03.2020 23:52 8,6 C 7,8 C 6,7 C 79 % 1013,4 hPa 0,0 l/m 0 min 0 min 0 W/m 0,0 km/h (0 Bft) 100,00 %
15.03.2020 23:54 8,5 C 7,8 C 6,7 C 79 % 1013,4 hPa 0,0 l/m 0 min 0 min 0 W/m 0,0 km/h (0 Bft) 100,00 %
15.03.2020 23:56 8,5 C 7,2 C 6,7 C 79 % 1013,4 hPa 0,0 l/m 0 min 0 min 0 W/m 0,0 km/h (0 Bft) 100,00 %
15.03.2020 23:58 8,5 C 7,2 C 6,7 C 79 % 1013,4 hPa 0,0 l/m 0 min 0 min 0 W/m 0,0 km/h (0 Bft) 100,00 %
_ Min-Zeit 06:46 05:22 05:18 15:24 16:58 - - - - 00:00 21:32
Minimum _ 6,2 C 5,6 C 5,0 C 64 % 1012,2 hPa - - - - 0,0 km/h (0 Bft) 54,55 %
_ Max-Zeit 15:58 11:34 12:42 08:20 00:00 00:00 15:45 00:00 11:32 10:46 00:10
Maximum _ 15,1 C 17,8 C 16,1 C 87 % 1018,8 hPa 0,0 l/m 5 min 0 min 707 W/m 51,5 km/h
SO (7 Bft)
100,00 %
Durchschnitt _ 10,5 C 10,3 C 9,5 C 77 % 1014,9 hPa #0,0 l/m #5:00 h #0 min. 222 W/m 8,4 km/h (2 Bft) 97,20 %
© 2020 W. Hausmann